Wetterdaten: Montag, 02.11.2020
Datum Zeit Temp. Aussen Temp. o. S. Temp +5cm Feuchte Auss Luftdruck Regen Sonnenschein Regendauer Solar Windben Empfang
02.11.2020 00:00 17,5 C 15,6 C 14,5 C 94 % 1008,4 hPa 0,0 l/m 0 min 2 min 0 W/m 29,0 km/h (5 Bft) 95,74 %
02.11.2020 00:02 17,4 C 15,6 C 14,5 C 94 % 1008,4 hPa 0,0 l/m 0 min 0 min 0 W/m 19,3 km/h (3 Bft) 95,00 %
02.11.2020 00:04 17,4 C 15,6 C 14,5 C 94 % 1008,4 hPa 0,0 l/m 0 min 2 min 0 W/m 22,5 km/h (4 Bft) 97,87 %
02.11.2020 00:07 17,4 C 15,6 C 14,5 C 94 % 1008,5 hPa 0,0 l/m 0 min 0 min 0 W/m 6,4 km/h (2 Bft) 98,57 %
02.11.2020 00:08 17,4 C 15,6 C 14,5 C 94 % 1008,5 hPa 0,0 l/m 0 min 0 min 0 W/m 12,9 km/h (3 Bft) 95,83 %
02.11.2020 00:10 17,4 C 15,6 C 14,5 C 94 % 1008,5 hPa 0,0 l/m 0 min 0 min 0 W/m 22,5 km/h (4 Bft) 97,83 %
02.11.2020 00:12 17,4 C 15,6 C 14,5 C 94 % 1008,5 hPa 0,0 l/m 0 min 0 min 0 W/m 19,3 km/h (3 Bft) 97,87 %
02.11.2020 00:14 17,4 C 15,6 C 14,5 C 94 % 1008,7 hPa 0,0 l/m 0 min 0 min 0 W/m 6,4 km/h (2 Bft) 93,62 %
02.11.2020 00:16 17,3 C 15,6 C 14,5 C 94 % 1008,6 hPa 0,0 l/m 0 min 2 min 0 W/m 25,7 km/h (4 Bft) 97,87 %
02.11.2020 00:18 17,3 C 15,6 C 14,5 C 94 % 1008,6 hPa 0,0 l/m 0 min 2 min 0 W/m 22,5 km/h (4 Bft) 100,00 %
02.11.2020 00:20 17,3 C 15,6 C 14,5 C 95 % 1008,5 hPa 0,0 l/m 0 min 2 min 0 W/m 19,3 km/h (3 Bft) 97,87 %
02.11.2020 00:22 17,3 C 15,6 C 14,5 C 95 % 1008,5 hPa 0,2 l/m 0 min 2 min 0 W/m 35,4 km/h (5 Bft) 95,65 %
02.11.2020 00:24 17,3 C 15,6 C 14,5 C 95 % 1008,4 hPa 0,0 l/m 0 min 2 min 0 W/m 22,5 km/h (4 Bft) 97,87 %
02.11.2020 00:26 17,3 C 15,6 C 14,5 C 95 % 1008,4 hPa 0,0 l/m 0 min 2 min 0 W/m 16,1 km/h (3 Bft) 97,92 %
02.11.2020 00:28 17,3 C 15,6 C 14,5 C 95 % 1008,4 hPa 0,0 l/m 0 min 2 min 0 W/m 16,1 km/h (3 Bft) 100,00 %
02.11.2020 00:30 17,3 C 15,6 C 14,5 C 95 % 1008,3 hPa 0,0 l/m 0 min 2 min 0 W/m 19,3 km/h (3 Bft) 97,87 %
02.11.2020 00:32 17,3 C 15,6 C 14,5 C 95 % 1008,3 hPa 0,0 l/m 0 min 2 min 0 W/m 16,1 km/h (3 Bft) 97,87 %
02.11.2020 00:34 17,2 C 15,6 C 14,5 C 95 % 1008,3 hPa 0,0 l/m 0 min 0 min 0 W/m 19,3 km/h (3 Bft) 97,87 %
02.11.2020 00:36 17,2 C 15,6 C 14,5 C 95 % 1008,2 hPa 0,0 l/m 0 min 0 min 0 W/m 22,5 km/h (4 Bft) 95,74 %
02.11.2020 00:38 17,2 C 15,6 C 14,5 C 95 % 1008,2 hPa 0,0 l/m 0 min 0 min 0 W/m 12,9 km/h (3 Bft) 97,87 %
02.11.2020 00:40 17,2 C 15,6 C 14,5 C 95 % 1008,3 hPa 0,0 l/m 0 min 0 min 0 W/m 19,3 km/h (3 Bft) 97,83 %
02.11.2020 00:42 17,2 C 15,6 C 14,5 C 95 % 1008,3 hPa 0,0 l/m 0 min 0 min 0 W/m 19,3 km/h (3 Bft) 97,87 %
02.11.2020 00:44 17,2 C 15,6 C 14,5 C 95 % 1008,3 hPa 0,0 l/m 0 min 0 min 0 W/m 16,1 km/h (3 Bft) 95,74 %
02.11.2020 00:46 17,2 C 15,6 C 14,5 C 95 % 1008,2 hPa 0,0 l/m 0 min 0 min 0 W/m 16,1 km/h (3 Bft) 93,62 %
02.11.2020 00:48 17,2 C 15,6 C 14,5 C 95 % 1008,3 hPa 0,0 l/m 0 min 0 min 0 W/m 19,3 km/h (3 Bft) 97,87 %
02.11.2020 00:50 17,2 C 15,6 C 14,5 C 95 % 1008,3 hPa 0,0 l/m 0 min 0 min 0 W/m 16,1 km/h (3 Bft) 97,87 %
02.11.2020 00:52 17,2 C 15,6 C 14,5 C 96 % 1008,2 hPa 0,0 l/m 0 min 0 min 0 W/m 16,1 km/h (3 Bft) 97,56 %
02.11.2020 00:54 17,1 C 15,6 C 14,5 C 96 % 1008,2 hPa 0,0 l/m 0 min 0 min 0 W/m 16,1 km/h (3 Bft) 97,87 %
02.11.2020 00:56 17,2 C 15,6 C 15,0 C 96 % 1008,2 hPa 0,0 l/m 0 min 0 min 0 W/m 22,5 km/h (4 Bft) 95,74 %
02.11.2020 00:58 17,2 C 15,6 C 15,0 C 96 % 1008,3 hPa 0,0 l/m 0 min 0 min 0 W/m 19,3 km/h (3 Bft) 97,96 %
02.11.2020 01:00 17,2 C 16,1 C 15,0 C 96 % 1008,4 hPa 0,0 l/m 0 min 0 min 0 W/m 29,0 km/h (5 Bft) 97,87 %
02.11.2020 01:02 17,2 C 16,1 C 15,0 C 96 % 1008,3 hPa 0,0 l/m 0 min 0 min 0 W/m 16,1 km/h (3 Bft) 95,74 %
02.11.2020 01:04 17,2 C 16,1 C 15,0 C 96 % 1008,3 hPa 0,0 l/m 0 min 0 min 0 W/m 25,7 km/h (4 Bft) 97,87 %
02.11.2020 01:06 17,2 C 16,1 C 15,0 C 96 % 1008,2 hPa 0,0 l/m 0 min 0 min 0 W/m 22,5 km/h (4 Bft) 97,87 %
02.11.2020 01:08 17,3 C 16,1 C 15,0 C 96 % 1008,2 hPa 0,0 l/m 0 min 0 min 0 W/m 19,3 km/h (3 Bft) 97,83 %
02.11.2020 01:10 17,3 C 16,1 C 15,0 C 96 % 1008,2 hPa 0,0 l/m 0 min 0 min 0 W/m 22,5 km/h (4 Bft) 97,87 %
02.11.2020 01:12 17,3 C 16,1 C 15,0 C 96 % 1008,2 hPa 0,0 l/m 0 min 0 min 0 W/m 22,5 km/h (4 Bft) 95,83 %
02.11.2020 01:14 17,3 C 16,1 C 15,0 C 96 % 1008,2 hPa 0,0 l/m 0 min 0 min 0 W/m 22,5 km/h (4 Bft) 95,74 %
02.11.2020 01:16 17,3 C 16,1 C 15,0 C 96 % 1008,2 hPa 0,0 l/m 0 min 0 min 0 W/m 38,6 km/h (5 Bft) 95,74 %
02.11.2020 01:18 17,3 C 16,1 C 15,0 C 96 % 1008,1 hPa 0,0 l/m 0 min 0 min 0 W/m 29,0 km/h (5 Bft) 95,74 %
02.11.2020 01:20 17,3 C 16,1 C 15,0 C 96 % 1008,1 hPa 0,0 l/m 0 min 0 min 0 W/m 29,0 km/h (5 Bft) 93,48 %
02.11.2020 01:22 17,4 C 16,1 C 15,0 C 95 % 1008,2 hPa 0,0 l/m 0 min 0 min 0 W/m 32,2 km/h (5 Bft) 95,74 %
02.11.2020 01:24 17,4 C 16,1 C 15,0 C 95 % 1008,1 hPa 0,0 l/m 0 min 0 min 0 W/m 19,3 km/h (3 Bft) 97,87 %
02.11.2020 01:26 17,4 C 16,1 C 15,0 C 95 % 1008,1 hPa 0,0 l/m 0 min 0 min 0 W/m 19,3 km/h (3 Bft) 95,74 %
02.11.2020 01:28 17,4 C 16,1 C 15,0 C 95 % 1008,1 hPa 0,0 l/m 0 min 0 min 0 W/m 16,1 km/h (3 Bft) 95,74 %
02.11.2020 01:30 17,5 C 16,1 C 15,0 C 95 % 1008,0 hPa 0,0 l/m 0 min 0 min 0 W/m 16,1 km/h (3 Bft) 97,87 %
02.11.2020 01:32 17,5 C 16,7 C 15,0 C 95 % 1008,0 hPa 0,0 l/m 0 min 0 min 0 W/m 29,0 km/h (5 Bft) 97,83 %
02.11.2020 01:34 17,5 C 16,7 C 15,0 C 95 % 1008,0 hPa 0,0 l/m 0 min 0 min 0 W/m 25,7 km/h (4 Bft) 97,92 %
02.11.2020 01:36 17,5 C 16,7 C 15,0 C 95 % 1008,0 hPa 0,0 l/m 0 min 0 min 0 W/m 25,7 km/h (4 Bft) 97,87 %
02.11.2020 01:38 17,5 C 16,7 C 15,0 C 95 % 1008,0 hPa 0,0 l/m 0 min 0 min 0 W/m 29,0 km/h (5 Bft) 97,87 %
02.11.2020 01:40 17,6 C 16,7 C 15,0 C 95 % 1008,0 hPa 0,0 l/m 0 min 0 min 0 W/m 3,2 km/h (1 Bft) 97,92 %
02.11.2020 01:42 17,6 C 16,7 C 15,0 C 95 % 1008,2 hPa 0,0 l/m 0 min 0 min 0 W/m 25,7 km/h (4 Bft) 97,87 %
02.11.2020 01:44 17,6 C 16,7 C 15,0 C 95 % 1008,0 hPa 0,0 l/m 0 min 0 min 0 W/m 12,9 km/h (3 Bft) 95,74 %
02.11.2020 01:46 17,6 C 16,7 C 15,0 C 94 % 1007,9 hPa 0,0 l/m 0 min 0 min 0 W/m 22,5 km/h (4 Bft) 97,87 %
02.11.2020 01:48 17,6 C 16,7 C 15,0 C 94 % 1008,0 hPa 0,0 l/m 0 min 0 min 0 W/m 19,3 km/h (3 Bft) 97,87 %
02.11.2020 01:50 17,7 C 16,7 C 15,6 C 94 % 1007,9 hPa 0,0 l/m 0 min 0 min 0 W/m 29,0 km/h (5 Bft) 97,83 %
02.11.2020 01:52 17,7 C 16,7 C 15,6 C 94 % 1007,9 hPa 0,0 l/m 0 min 0 min 0 W/m 25,7 km/h (4 Bft) 97,87 %
02.11.2020 01:54 17,8 C 16,7 C 15,6 C 94 % 1007,9 hPa 0,0 l/m 0 min 0 min 0 W/m 19,3 km/h (3 Bft) 97,87 %
02.11.2020 01:56 17,8 C 16,7 C 15,6 C 94 % 1007,9 hPa 0,0 l/m 0 min 0 min 0 W/m 25,7 km/h (4 Bft) 97,87 %
02.11.2020 01:58 17,8 C 16,7 C 15,6 C 94 % 1007,9 hPa 0,0 l/m 0 min 0 min 0 W/m 38,6 km/h (5 Bft) 93,62 %
02.11.2020 02:00 17,9 C 16,7 C 15,6 C 94 % 1007,9 hPa 0,0 l/m 0 min 0 min 0 W/m 16,1 km/h (3 Bft) 100,00 %
02.11.2020 02:02 17,9 C 16,7 C 15,6 C 94 % 1008,0 hPa 0,0 l/m 0 min 0 min 0 W/m 29,0 km/h (5 Bft) 100,00 %
02.11.2020 02:04 17,9 C 16,7 C 15,6 C 93 % 1008,1 hPa 0,0 l/m 0 min 0 min 0 W/m 45,1 km/h (6 Bft) 97,87 %
02.11.2020 02:06 18,0 C 16,7 C 15,6 C 93 % 1007,9 hPa 0,0 l/m 0 min 0 min 0 W/m 64,4 km/h (8 Bft) 100,00 %
02.11.2020 02:08 18,0 C 16,7 C 15,6 C 93 % 1008,0 hPa 0,0 l/m 0 min 0 min 0 W/m 19,3 km/h (3 Bft) 100,00 %
02.11.2020 02:10 18,0 C 16,7 C 15,6 C 93 % 1007,9 hPa 0,0 l/m 0 min 0 min 0 W/m 45,1 km/h (6 Bft) 100,00 %
02.11.2020 02:12 18,1 C 16,7 C 15,6 C 93 % 1008,0 hPa 0,0 l/m 0 min 0 min 0 W/m 41,8 km/h (6 Bft) 97,92 %
02.11.2020 02:14 18,1 C 16,7 C 15,6 C 93 % 1007,9 hPa 0,0 l/m 0 min 0 min 0 W/m 32,2 km/h (5 Bft) 97,87 %
02.11.2020 02:16 18,1 C 16,7 C 15,6 C 92 % 1007,9 hPa 0,0 l/m 0 min 0 min 0 W/m 25,7 km/h (4 Bft) 100,00 %
02.11.2020 02:18 18,1 C 16,7 C 15,6 C 92 % 1007,9 hPa 0,0 l/m 0 min 0 min 0 W/m 29,0 km/h (5 Bft) 100,00 %
02.11.2020 02:20 18,2 C 16,7 C 15,6 C 92 % 1007,9 hPa 0,0 l/m 0 min 0 min 0 W/m 22,5 km/h (4 Bft) 100,00 %
02.11.2020 02:22 18,2 C 16,7 C 15,6 C 92 % 1007,9 hPa 0,0 l/m 0 min 0 min 0 W/m 25,7 km/h (4 Bft) 100,00 %
02.11.2020 02:24 18,3 C 16,7 C 15,6 C 92 % 1007,8 hPa 0,0 l/m 0 min 0 min 0 W/m 38,6 km/h (5 Bft) 100,00 %
02.11.2020 02:26 18,3 C 16,7 C 15,6 C 92 % 1007,9 hPa 0,0 l/m 0 min 0 min 0 W/m 22,5 km/h (4 Bft) 100,00 %
02.11.2020 02:28 18,3 C 16,7 C 15,6 C 92 % 1007,8 hPa 0,0 l/m 0 min 0 min 0 W/m 16,1 km/h (3 Bft) 100,00 %
02.11.2020 02:30 18,3 C 17,2 C 15,6 C 91 % 1007,8 hPa 0,0 l/m 0 min 0 min 0 W/m 19,3 km/h (3 Bft) 100,00 %
02.11.2020 02:32 18,4 C 17,2 C 15,6 C 92 % 1007,8 hPa 0,0 l/m 0 min 0 min 0 W/m 12,9 km/h (3 Bft) 100,00 %
02.11.2020 02:34 18,4 C 17,8 C 15,6 C 91 % 1007,8 hPa 0,0 l/m 0 min 0 min 0 W/m 19,3 km/h (3 Bft) 100,00 %
02.11.2020 02:36 18,4 C 17,8 C 15,6 C 91 % 1007,7 hPa 0,0 l/m 0 min 0 min 0 W/m 12,9 km/h (3 Bft) 100,00 %
02.11.2020 02:38 18,4 C 17,8 C 15,6 C 91 % 1007,7 hPa 0,0 l/m 0 min 0 min 0 W/m 22,5 km/h (4 Bft) 100,00 %
02.11.2020 02:40 18,4 C 17,8 C 15,6 C 91 % 1007,8 hPa 0,0 l/m 0 min 0 min 0 W/m 41,8 km/h (6 Bft) 100,00 %
02.11.2020 02:42 18,4 C 17,8 C 15,6 C 91 % 1007,8 hPa 0,0 l/m 0 min 0 min 0 W/m 35,4 km/h (5 Bft) 97,87 %
02.11.2020 02:44 18,5 C 18,3 C 15,6 C 91 % 1007,7 hPa 0,0 l/m 0 min 0 min 0 W/m 32,2 km/h (5 Bft) 97,92 %
02.11.2020 02:46 18,5 C 18,3 C 16,1 C 91 % 1007,8 hPa 0,0 l/m 0 min 0 min 0 W/m 32,2 km/h (5 Bft) 95,74 %
02.11.2020 02:48 18,5 C 18,3 C 15,6 C 90 % 1007,9 hPa 0,0 l/m 0 min 0 min 0 W/m 22,5 km/h (4 Bft) 100,00 %
02.11.2020 02:50 18,5 C 17,8 C 15,6 C 90 % 1007,7 hPa 0,0 l/m 0 min 0 min 0 W/m 19,3 km/h (3 Bft) 100,00 %
02.11.2020 02:52 18,6 C 17,8 C 15,6 C 90 % 1007,7 hPa 0,0 l/m 0 min 0 min 0 W/m 12,9 km/h (3 Bft) 100,00 %
02.11.2020 02:54 18,6 C 17,8 C 15,6 C 90 % 1007,7 hPa 0,0 l/m 0 min 0 min 0 W/m 12,9 km/h (3 Bft) 100,00 %
02.11.2020 02:56 18,6 C 17,8 C 16,1 C 90 % 1007,7 hPa 0,0 l/m 0 min 0 min 0 W/m 19,3 km/h (3 Bft) 100,00 %
02.11.2020 02:58 18,6 C 17,8 C 16,1 C 90 % 1007,6 hPa 0,0 l/m 0 min 0 min 0 W/m 19,3 km/h (3 Bft) 97,83 %
02.11.2020 03:00 18,6 C 17,8 C 16,1 C 90 % 1007,6 hPa 0,0 l/m 0 min 0 min 0 W/m 16,1 km/h (3 Bft) 97,87 %
02.11.2020 03:02 18,6 C 18,3 C 16,1 C 90 % 1007,7 hPa 0,0 l/m 0 min 0 min 0 W/m 16,1 km/h (3 Bft) 97,73 %
02.11.2020 03:04 18,6 C 18,3 C 16,1 C 90 % 1007,6 hPa 0,0 l/m 0 min 0 min 0 W/m 19,3 km/h (3 Bft) 97,83 %
02.11.2020 03:06 18,7 C 18,3 C 16,1 C 90 % 1007,7 hPa 0,0 l/m 0 min 0 min 0 W/m 38,6 km/h (5 Bft) 97,87 %
02.11.2020 03:08 18,7 C 18,3 C 16,7 C 90 % 1007,6 hPa 0,0 l/m 0 min 0 min 0 W/m 29,0 km/h (5 Bft) 97,87 %
02.11.2020 03:10 18,8 C 18,3 C 16,7 C 89 % 1007,6 hPa 0,0 l/m 0 min 0 min 0 W/m 29,0 km/h (5 Bft) 97,92 %
02.11.2020 03:12 18,8 C 18,3 C 16,7 C 89 % 1007,6 hPa 0,0 l/m 0 min 0 min 0 W/m 25,7 km/h (4 Bft) 97,92 %
02.11.2020 03:14 18,8 C 18,3 C 16,7 C 89 % 1007,7 hPa 0,0 l/m 0 min 0 min 0 W/m 25,7 km/h (4 Bft) 97,87 %
02.11.2020 03:16 18,8 C 18,3 C 16,7 C 89 % 1007,7 hPa 0,0 l/m 0 min 0 min 0 W/m 22,5 km/h (4 Bft) 97,87 %
02.11.2020 03:18 18,8 C 18,3 C 16,7 C 89 % 1007,8 hPa 0,0 l/m 0 min 0 min 0 W/m 22,5 km/h (4 Bft) 95,83 %
02.11.2020 03:20 18,8 C 18,3 C 16,7 C 89 % 1007,7 hPa 0,0 l/m 0 min 0 min 0 W/m 35,4 km/h (5 Bft) 97,87 %
02.11.2020 03:22 18,8 C 18,3 C 17,2 C 89 % 1007,7 hPa 0,0 l/m 0 min 0 min 0 W/m 29,0 km/h (5 Bft) 97,83 %
02.11.2020 03:24 18,9 C 18,3 C 16,7 C 89 % 1007,6 hPa 0,0 l/m 0 min 0 min 0 W/m 16,1 km/h (3 Bft) 95,74 %
02.11.2020 03:26 18,9 C 18,3 C 16,7 C 89 % 1007,7 hPa 0,0 l/m 0 min 0 min 0 W/m 16,1 km/h (3 Bft) 95,74 %
02.11.2020 03:28 18,9 C 18,3 C 16,7 C 89 % 1007,6 hPa 0,0 l/m 0 min 0 min 0 W/m 19,3 km/h (3 Bft) 95,74 %
02.11.2020 03:30 18,9 C 18,3 C 16,7 C 89 % 1007,7 hPa 0,0 l/m 0 min 0 min 0 W/m 29,0 km/h (5 Bft) 97,87 %
02.11.2020 03:32 18,9 C 18,3 C 16,7 C 89 % 1007,6 hPa 0,0 l/m 0 min 0 min 0 W/m 25,7 km/h (4 Bft) 92,68 %
02.11.2020 03:34 18,9 C 18,3 C 16,7 C 89 % 1007,5 hPa 0,0 l/m 0 min 0 min 0 W/m 22,5 km/h (4 Bft) 95,83 %
02.11.2020 03:36 18,9 C 18,3 C 16,7 C 89 % 1007,6 hPa 0,0 l/m 0 min 0 min 0 W/m 35,4 km/h (5 Bft) 95,83 %
02.11.2020 03:38 18,9 C 17,8 C 16,7 C 89 % 1007,6 hPa 0,0 l/m 0 min 0 min 0 W/m 19,3 km/h (3 Bft) 93,75 %
02.11.2020 03:40 18,9 C 17,8 C 16,7 C 89 % 1007,5 hPa 0,0 l/m 0 min 0 min 0 W/m 35,4 km/h (5 Bft) 93,62 %
02.11.2020 03:42 18,9 C 17,8 C 16,7 C 89 % 1007,5 hPa 0,0 l/m 0 min 0 min 0 W/m 12,9 km/h (3 Bft) 95,83 %
02.11.2020 03:44 18,8 C 17,8 C 16,7 C 89 % 1007,5 hPa 0,0 l/m 0 min 0 min 0 W/m 32,2 km/h (5 Bft) 93,62 %
02.11.2020 03:46 18,8 C 17,8 C 16,7 C 89 % 1007,8 hPa 0,0 l/m 0 min 0 min 0 W/m 25,7 km/h (4 Bft) 95,74 %
02.11.2020 03:48 18,8 C 17,8 C 16,7 C 89 % 1007,7 hPa 0,0 l/m 0 min 0 min 0 W/m 25,7 km/h (4 Bft) 95,74 %
02.11.2020 03:50 18,8 C 17,8 C 16,7 C 89 % 1007,6 hPa 0,0 l/m 0 min 0 min 0 W/m 35,4 km/h (5 Bft) 95,74 %
02.11.2020 03:52 18,8 C 17,8 C 16,7 C 89 % 1007,6 hPa 0,0 l/m 0 min 0 min 0 W/m 32,2 km/h (5 Bft) 93,62 %
02.11.2020 03:54 18,8 C 17,8 C 16,7 C 89 % 1007,6 hPa 0,0 l/m 0 min 0 min 0 W/m 35,4 km/h (5 Bft) 93,75 %
02.11.2020 03:56 18,8 C 17,8 C 16,7 C 89 % 1007,7 hPa 0,0 l/m 0 min 0 min 0 W/m 25,7 km/h (4 Bft) 95,65 %
02.11.2020 03:58 18,8 C 17,8 C 16,7 C 89 % 1007,6 hPa 0,0 l/m 0 min 0 min 0 W/m 25,7 km/h (4 Bft) 95,74 %
02.11.2020 04:00 18,8 C 17,8 C 16,7 C 89 % 1007,7 hPa 0,0 l/m 0 min 0 min 0 W/m 19,3 km/h (3 Bft) 95,74 %
02.11.2020 04:02 18,8 C 17,8 C 16,7 C 89 % 1007,6 hPa 0,0 l/m 0 min 0 min 0 W/m 22,5 km/h (4 Bft) 96,55 %
02.11.2020 04:04 18,8 C 17,8 C 16,7 C 89 % 1007,7 hPa 0,0 l/m 0 min 0 min 0 W/m 19,3 km/h (3 Bft) 91,49 %
02.11.2020 04:06 18,8 C 17,8 C 16,7 C 90 % 1007,8 hPa 0,0 l/m 0 min 0 min 0 W/m 29,0 km/h (5 Bft) 95,74 %
02.11.2020 04:08 18,8 C 17,8 C 16,7 C 90 % 1007,7 hPa 0,0 l/m 0 min 0 min 0 W/m 41,8 km/h (6 Bft) 93,48 %
02.11.2020 04:10 18,8 C 17,8 C 16,7 C 90 % 1007,7 hPa 0,0 l/m 0 min 0 min 0 W/m 19,3 km/h (3 Bft) 95,74 %
02.11.2020 04:12 18,8 C 17,8 C 16,7 C 90 % 1007,8 hPa 0,0 l/m 0 min 0 min 0 W/m 32,2 km/h (5 Bft) 95,24 %
02.11.2020 04:14 18,8 C 17,8 C 16,7 C 90 % 1007,7 hPa 0,0 l/m 0 min 0 min 0 W/m 35,4 km/h (5 Bft) 93,48 %
02.11.2020 04:16 18,8 C 17,8 C 16,7 C 90 % 1007,7 hPa 0,0 l/m 0 min 0 min 0 W/m 29,0 km/h (5 Bft) 95,74 %
02.11.2020 04:18 18,8 C 17,8 C 16,7 C 90 % 1007,8 hPa 0,0 l/m 0 min 0 min 0 W/m 22,5 km/h (4 Bft) 95,74 %
02.11.2020 04:20 18,8 C 17,8 C 16,7 C 90 % 1007,9 hPa 0,0 l/m 0 min 0 min 0 W/m 32,2 km/h (5 Bft) 93,62 %
02.11.2020 04:22 18,8 C 17,8 C 16,7 C 90 % 1007,9 hPa 0,0 l/m 0 min 0 min 0 W/m 35,4 km/h (5 Bft) 93,62 %
02.11.2020 04:24 18,8 C 17,8 C 16,7 C 90 % 1007,8 hPa 0,0 l/m 0 min 0 min 0 W/m 12,9 km/h (3 Bft) 95,74 %
02.11.2020 04:26 18,8 C 17,8 C 16,7 C 90 % 1007,8 hPa 0,0 l/m 0 min 0 min 0 W/m 29,0 km/h (5 Bft) 97,83 %
02.11.2020 04:28 18,8 C 17,8 C 16,7 C 90 % 1007,7 hPa 0,0 l/m 0 min 0 min 0 W/m 25,7 km/h (4 Bft) 97,87 %
02.11.2020 04:30 18,8 C 17,8 C 16,7 C 90 % 1007,9 hPa 0,0 l/m 0 min 0 min 0 W/m 22,5 km/h (4 Bft) 97,87 %
02.11.2020 04:32 18,8 C 17,8 C 16,7 C 90 % 1007,9 hPa 0,0 l/m 0 min 0 min 0 W/m 29,0 km/h (5 Bft) 97,87 %
02.11.2020 04:34 18,8 C 17,8 C 16,7 C 90 % 1007,8 hPa 0,0 l/m 0 min 0 min 0 W/m 19,3 km/h (3 Bft) 97,87 %
02.11.2020 04:36 18,8 C 17,8 C 16,7 C 90 % 1007,8 hPa 0,0 l/m 0 min 0 min 0 W/m 22,5 km/h (4 Bft) 97,87 %
02.11.2020 04:38 18,8 C 17,8 C 16,7 C 90 % 1007,8 hPa 0,0 l/m 0 min 0 min 0 W/m 9,7 km/h (2 Bft) 97,83 %
02.11.2020 04:40 18,8 C 17,8 C 16,7 C 90 % 1007,9 hPa 0,0 l/m 0 min 0 min 0 W/m 16,1 km/h (3 Bft) 100,00 %
02.11.2020 04:42 18,8 C 17,8 C 16,7 C 90 % 1008,0 hPa 0,0 l/m 0 min 0 min 0 W/m 29,0 km/h (5 Bft) 100,00 %
02.11.2020 04:44 18,8 C 17,8 C 16,7 C 90 % 1007,8 hPa 0,0 l/m 0 min 0 min 0 W/m 22,5 km/h (4 Bft) 100,00 %
02.11.2020 04:46 18,7 C 17,8 C 16,7 C 90 % 1007,8 hPa 0,0 l/m 0 min 0 min 0 W/m 35,4 km/h (5 Bft) 97,87 %
02.11.2020 04:48 18,8 C 17,8 C 16,7 C 90 % 1007,8 hPa 0,0 l/m 0 min 0 min 0 W/m 19,3 km/h (3 Bft) 100,00 %
02.11.2020 04:50 18,7 C 17,8 C 16,7 C 90 % 1007,8 hPa 0,0 l/m 0 min 0 min 0 W/m 25,7 km/h (4 Bft) 100,00 %
02.11.2020 04:52 18,8 C 17,8 C 16,7 C 90 % 1007,9 hPa 0,0 l/m 0 min 0 min 0 W/m 32,2 km/h (5 Bft) 100,00 %
02.11.2020 04:54 18,7 C 17,8 C 16,7 C 90 % 1007,8 hPa 0,0 l/m 0 min 0 min 0 W/m 22,5 km/h (4 Bft) 100,00 %
02.11.2020 04:56 18,7 C 17,8 C 16,7 C 90 % 1007,8 hPa 0,0 l/m 0 min 0 min 0 W/m 12,9 km/h (3 Bft) 100,00 %
02.11.2020 04:58 18,7 C 17,8 C 16,7 C 90 % 1007,7 hPa 0,0 l/m 0 min 0 min 0 W/m 12,9 km/h (3 Bft) 100,00 %
02.11.2020 05:00 18,7 C 17,8 C 16,7 C 90 % 1008,0 hPa 0,0 l/m 0 min 0 min 0 W/m 25,7 km/h (4 Bft) 100,00 %
02.11.2020 05:02 18,7 C 17,8 C 16,7 C 90 % 1007,8 hPa 0,0 l/m 0 min 0 min 0 W/m 32,2 km/h (5 Bft) 100,00 %
02.11.2020 05:04 18,7 C 17,8 C 16,7 C 90 % 1007,9 hPa 0,0 l/m 0 min 0 min 0 W/m 19,3 km/h (3 Bft) 97,14 %
02.11.2020 05:06 18,7 C 17,8 C 16,7 C 90 % 1007,8 hPa 0,0 l/m 0 min 0 min 0 W/m 29,0 km/h (5 Bft) 100,00 %
02.11.2020 05:08 18,7 C 17,8 C 16,7 C 90 % 1007,8 hPa 0,0 l/m 0 min 0 min 0 W/m 32,2 km/h (5 Bft) 100,00 %
02.11.2020 05:10 18,7 C 17,8 C 16,7 C 90 % 1007,8 hPa 0,0 l/m 0 min 0 min 0 W/m 32,2 km/h (5 Bft) 100,00 %
02.11.2020 05:12 18,7 C 17,8 C 16,7 C 90 % 1007,7 hPa 0,0 l/m 0 min 0 min 0 W/m 38,6 km/h (5 Bft) 100,00 %
02.11.2020 05:14 18,7 C 17,8 C 16,7 C 90 % 1007,8 hPa 0,0 l/m 0 min 0 min 0 W/m 25,7 km/h (4 Bft) 97,87 %
02.11.2020 05:16 18,7 C 17,8 C 16,7 C 90 % 1007,8 hPa 0,0 l/m 0 min 0 min 0 W/m 25,7 km/h (4 Bft) 100,00 %
02.11.2020 05:18 18,7 C 17,8 C 16,7 C 90 % 1007,8 hPa 0,0 l/m 0 min 0 min 0 W/m 38,6 km/h (5 Bft) 100,00 %
02.11.2020 05:20 18,7 C 17,8 C 16,7 C 90 % 1007,9 hPa 0,0 l/m 0 min 0 min 0 W/m 25,7 km/h (4 Bft) 100,00 %
02.11.2020 05:22 18,7 C 17,8 C 16,7 C 90 % 1007,7 hPa 0,0 l/m 0 min 0 min 0 W/m 12,9 km/h (3 Bft) 100,00 %
02.11.2020 05:24 18,6 C 17,8 C 16,7 C 90 % 1007,8 hPa 0,0 l/m 0 min 0 min 0 W/m 29,0 km/h (5 Bft) 100,00 %
02.11.2020 05:26 18,6 C 17,8 C 16,7 C 90 % 1007,9 hPa 0,0 l/m 0 min 0 min 0 W/m 25,7 km/h (4 Bft) 100,00 %
02.11.2020 05:28 18,7 C 17,8 C 16,7 C 90 % 1007,9 hPa 0,0 l/m 0 min 0 min 0 W/m 19,3 km/h (3 Bft) 100,00 %
02.11.2020 05:30 18,6 C 17,8 C 16,7 C 90 % 1007,9 hPa 0,0 l/m 0 min 0 min 0 W/m 22,5 km/h (4 Bft) 100,00 %
02.11.2020 05:32 18,6 C 17,8 C 16,7 C 90 % 1007,9 hPa 0,0 l/m 0 min 0 min 0 W/m 16,1 km/h (3 Bft) 100,00 %
02.11.2020 05:34 18,6 C 17,8 C 16,7 C 90 % 1007,8 hPa 0,0 l/m 0 min 0 min 0 W/m 16,1 km/h (3 Bft) 100,00 %
02.11.2020 05:36 18,6 C 17,8 C 16,7 C 90 % 1007,8 hPa 0,0 l/m 0 min 0 min 0 W/m 19,3 km/h (3 Bft) 100,00 %
02.11.2020 05:38 18,6 C 17,8 C 16,7 C 90 % 1007,8 hPa 0,0 l/m 0 min 0 min 0 W/m 32,2 km/h (5 Bft) 100,00 %
02.11.2020 05:40 18,6 C 17,8 C 16,7 C 90 % 1007,8 hPa 0,0 l/m 0 min 0 min 0 W/m 3,2 km/h (1 Bft) 100,00 %
02.11.2020 05:42 18,6 C 17,8 C 16,7 C 90 % 1007,8 hPa 0,0 l/m 0 min 0 min 0 W/m 19,3 km/h (3 Bft) 100,00 %
02.11.2020 05:44 18,6 C 17,8 C 16,7 C 90 % 1007,8 hPa 0,0 l/m 0 min 0 min 0 W/m 29,0 km/h (5 Bft) 100,00 %
02.11.2020 05:46 18,6 C 17,8 C 16,7 C 90 % 1007,8 hPa 0,0 l/m 0 min 0 min 0 W/m 25,7 km/h (4 Bft) 100,00 %
02.11.2020 05:48 18,6 C 17,8 C 16,7 C 90 % 1007,8 hPa 0,0 l/m 0 min 0 min 0 W/m 22,5 km/h (4 Bft) 100,00 %
02.11.2020 05:50 18,6 C 17,8 C 16,7 C 90 % 1007,7 hPa 0,0 l/m 0 min 0 min 0 W/m 19,3 km/h (3 Bft) 100,00 %
02.11.2020 05:52 18,6 C 17,8 C 16,7 C 90 % 1007,7 hPa 0,0 l/m 0 min 0 min 0 W/m 32,2 km/h (5 Bft) 100,00 %
02.11.2020 05:54 18,6 C 17,8 C 16,7 C 90 % 1007,8 hPa 0,0 l/m 0 min 0 min 0 W/m 25,7 km/h (4 Bft) 100,00 %
02.11.2020 05:56 18,6 C 17,8 C 16,7 C 90 % 1007,8 hPa 0,0 l/m 0 min 0 min 0 W/m 35,4 km/h (5 Bft) 100,00 %
02.11.2020 05:58 18,7 C 17,8 C 16,7 C 90 % 1007,8 hPa 0,0 l/m 0 min 0 min 0 W/m 32,2 km/h (5 Bft) 100,00 %
02.11.2020 06:00 18,7 C 17,8 C 16,7 C 90 % 1007,7 hPa 0,0 l/m 0 min 0 min 0 W/m 29,0 km/h (5 Bft) 100,00 %
02.11.2020 06:02 18,7 C 18,3 C 16,7 C 90 % 1007,8 hPa 0,0 l/m 0 min 0 min 0 W/m 25,7 km/h (4 Bft) 100,00 %
02.11.2020 06:04 18,7 C 17,8 C 16,7 C 90 % 1007,8 hPa 0,0 l/m 0 min 0 min 0 W/m 19,3 km/h (3 Bft) 100,00 %
02.11.2020 06:08 18,7 C 17,8 C 16,7 C 90 % 1007,8 hPa 0,0 l/m 0 min 0 min 0 W/m 32,2 km/h (5 Bft) 98,86 %
02.11.2020 06:10 18,7 C 17,8 C 16,7 C 90 % 1007,8 hPa 0,0 l/m 0 min 0 min 0 W/m 38,6 km/h (5 Bft) 100,00 %
02.11.2020 06:12 18,8 C 17,8 C 16,7 C 90 % 1007,9 hPa 0,0 l/m 0 min 0 min 0 W/m 45,1 km/h (6 Bft) 100,00 %
02.11.2020 06:14 18,8 C 17,8 C 16,7 C 90 % 1007,6 hPa 0,0 l/m 0 min 0 min 0 W/m 35,4 km/h (5 Bft) 97,83 %
02.11.2020 06:16 18,8 C 17,8 C 16,7 C 90 % 1007,7 hPa 0,0 l/m 0 min 0 min 0 W/m 38,6 km/h (5 Bft) 100,00 %
02.11.2020 06:18 18,8 C 17,8 C 16,7 C 90 % 1007,7 hPa 0,0 l/m 0 min 0 min 0 W/m 22,5 km/h (4 Bft) 100,00 %
02.11.2020 06:20 18,8 C 17,8 C 16,7 C 90 % 1007,9 hPa 0,0 l/m 0 min 0 min 0 W/m 32,2 km/h (5 Bft) 100,00 %
02.11.2020 06:22 18,8 C 17,8 C 16,7 C 90 % 1007,7 hPa 0,0 l/m 0 min 0 min 0 W/m 16,1 km/h (3 Bft) 95,74 %
02.11.2020 06:24 18,8 C 17,8 C 16,7 C 90 % 1007,7 hPa 0,0 l/m 0 min 0 min 0 W/m 38,6 km/h (5 Bft) 95,74 %
02.11.2020 06:26 18,8 C 17,8 C 16,7 C 90 % 1007,6 hPa 0,0 l/m 0 min 0 min 0 W/m 48,3 km/h (6 Bft) 97,83 %
02.11.2020 06:28 18,8 C 17,8 C 16,7 C 90 % 1007,7 hPa 0,0 l/m 0 min 0 min 0 W/m 29,0 km/h (5 Bft) 93,62 %
02.11.2020 06:30 18,7 C 17,8 C 16,7 C 90 % 1007,6 hPa 0,0 l/m 0 min 0 min 0 W/m 32,2 km/h (5 Bft) 97,87 %
02.11.2020 06:32 18,7 C 17,8 C 16,7 C 90 % 1007,7 hPa 0,0 l/m 0 min 0 min 0 W/m 25,7 km/h (4 Bft) 93,62 %
02.11.2020 06:34 18,7 C 17,8 C 16,7 C 90 % 1007,6 hPa 0,0 l/m 0 min 0 min 0 W/m 32,2 km/h (5 Bft) 95,74 %
02.11.2020 06:36 18,7 C 17,8 C 16,7 C 90 % 1007,6 hPa 0,0 l/m 0 min 0 min 0 W/m 35,4 km/h (5 Bft) 95,74 %
02.11.2020 06:38 18,6 C 17,8 C 16,7 C 90 % 1007,6 hPa 0,0 l/m 0 min 0 min 0 W/m 19,3 km/h (3 Bft) 95,83 %
02.11.2020 06:40 18,6 C 17,8 C 16,7 C 90 % 1007,5 hPa 0,0 l/m 0 min 0 min 0 W/m 38,6 km/h (5 Bft) 95,83 %
02.11.2020 06:42 18,6 C 17,8 C 16,7 C 90 % 1007,6 hPa 0,0 l/m 0 min 0 min 0 W/m 29,0 km/h (5 Bft) 91,49 %
02.11.2020 06:44 18,6 C 17,8 C 16,7 C 90 % 1007,6 hPa 0,0 l/m 0 min 0 min 0 W/m 32,2 km/h (5 Bft) 93,62 %
02.11.2020 06:46 18,6 C 17,8 C 16,7 C 90 % 1007,6 hPa 0,0 l/m 0 min 0 min 0 W/m 25,7 km/h (4 Bft) 93,62 %
02.11.2020 06:48 18,6 C 17,8 C 16,7 C 90 % 1007,8 hPa 0,0 l/m 0 min 0 min 0 W/m 22,5 km/h (4 Bft) 93,62 %
02.11.2020 06:50 18,5 C 17,8 C 16,7 C 90 % 1007,8 hPa 0,0 l/m 0 min 0 min 0 W/m 41,8 km/h (6 Bft) 93,75 %
02.11.2020 06:52 18,5 C 17,8 C 16,7 C 90 % 1007,8 hPa 0,0 l/m 0 min 0 min 0 W/m 32,2 km/h (5 Bft) 91,67 %
02.11.2020 06:54 18,5 C 17,8 C 16,7 C 90 % 1007,7 hPa 0,0 l/m 0 min 0 min 0 W/m 22,5 km/h (4 Bft) 93,62 %
02.11.2020 06:56 18,5 C 17,8 C 16,7 C 90 % 1007,7 hPa 0,0 l/m 0 min 0 min 0 W/m 35,4 km/h (5 Bft) 93,75 %
02.11.2020 06:58 18,5 C 17,8 C 16,7 C 90 % 1007,7 hPa 0,0 l/m 0 min 0 min 0 W/m 16,1 km/h (3 Bft) 91,67 %
02.11.2020 07:00 18,5 C 17,8 C 16,7 C 90 % 1007,8 hPa 0,0 l/m 0 min 0 min 0 W/m 35,4 km/h (5 Bft) 93,62 %
02.11.2020 07:02 18,5 C 17,8 C 16,7 C 90 % 1007,8 hPa 0,0 l/m 0 min 0 min 0 W/m 25,7 km/h (4 Bft) 93,75 %
02.11.2020 07:04 18,5 C 17,8 C 16,7 C 90 % 1007,8 hPa 0,0 l/m 0 min 0 min 0 W/m 35,4 km/h (5 Bft) 93,48 %
02.11.2020 07:06 18,5 C 17,8 C 16,7 C 90 % 1007,8 hPa 0,0 l/m 0 min 0 min 0 W/m 25,7 km/h (4 Bft) 93,62 %
02.11.2020 07:08 18,5 C 17,8 C 16,7 C 90 % 1007,8 hPa 0,0 l/m 0 min 0 min 0 W/m 41,8 km/h (6 Bft) 93,62 %
02.11.2020 07:10 18,5 C 17,8 C 16,7 C 90 % 1007,9 hPa 0,0 l/m 0 min 0 min 0 W/m 32,2 km/h (5 Bft) 93,62 %
02.11.2020 07:12 18,5 C 17,8 C 16,7 C 89 % 1008,0 hPa 0,0 l/m 0 min 0 min 0 W/m 25,7 km/h (4 Bft) 93,62 %
02.11.2020 07:14 18,5 C 17,8 C 16,7 C 89 % 1007,8 hPa 0,0 l/m 0 min 0 min 0 W/m 22,5 km/h (4 Bft) 95,74 %
02.11.2020 07:16 18,5 C 17,8 C 16,7 C 89 % 1007,9 hPa 0,0 l/m 0 min 0 min 0 W/m 19,3 km/h (3 Bft) 93,48 %
02.11.2020 07:18 18,5 C 17,8 C 16,7 C 89 % 1007,9 hPa 0,0 l/m 0 min 0 min 0 W/m 22,5 km/h (4 Bft) 93,62 %
02.11.2020 07:20 18,5 C 17,8 C 16,7 C 89 % 1007,9 hPa 0,0 l/m 0 min 0 min 0 W/m 35,4 km/h (5 Bft) 95,74 %
02.11.2020 07:22 18,5 C 17,8 C 16,7 C 89 % 1008,2 hPa 0,0 l/m 0 min 0 min 0 W/m 41,8 km/h (6 Bft) 97,87 %
02.11.2020 07:24 18,5 C 17,8 C 16,7 C 88 % 1007,9 hPa 0,0 l/m 0 min 0 min 0 W/m 16,1 km/h (3 Bft) 97,87 %
02.11.2020 07:26 18,5 C 17,8 C 16,7 C 88 % 1007,8 hPa 0,0 l/m 0 min 0 min 0 W/m 35,4 km/h (5 Bft) 97,83 %
02.11.2020 07:28 18,5 C 17,8 C 16,7 C 88 % 1007,8 hPa 0,0 l/m 0 min 0 min 0 W/m 12,9 km/h (3 Bft) 93,62 %
02.11.2020 07:30 18,5 C 17,8 C 16,7 C 88 % 1007,8 hPa 0,0 l/m 0 min 0 min 0 W/m 29,0 km/h (5 Bft) 97,87 %
02.11.2020 07:32 18,5 C 17,8 C 16,7 C 88 % 1008,0 hPa 0,0 l/m 0 min 0 min 0 W/m 29,0 km/h (5 Bft) 97,87 %
02.11.2020 07:34 18,5 C 17,8 C 16,7 C 88 % 1007,9 hPa 0,0 l/m 0 min 0 min 0 W/m 32,2 km/h (5 Bft) 95,74 %
02.11.2020 07:36 18,5 C 17,8 C 16,7 C 88 % 1007,9 hPa 0,0 l/m 0 min 0 min 0 W/m 22,5 km/h (4 Bft) 97,87 %
02.11.2020 07:38 18,5 C 17,8 C 16,7 C 88 % 1008,0 hPa 0,0 l/m 0 min 0 min 0 W/m 25,7 km/h (4 Bft) 95,65 %
02.11.2020 07:40 18,5 C 17,8 C 16,7 C 88 % 1008,0 hPa 0,0 l/m 0 min 0 min 0 W/m 29,0 km/h (5 Bft) 97,87 %
02.11.2020 07:42 18,5 C 17,8 C 16,7 C 88 % 1008,0 hPa 0,0 l/m 0 min 0 min 3 W/m 22,5 km/h (4 Bft) 97,87 %
02.11.2020 07:44 18,5 C 17,8 C 16,7 C 88 % 1008,0 hPa 0,0 l/m 0 min 0 min 5 W/m 19,3 km/h (3 Bft) 97,87 %
02.11.2020 07:46 18,5 C 17,8 C 16,7 C 87 % 1008,0 hPa 0,0 l/m 0 min 0 min 7 W/m 19,3 km/h (3 Bft) 97,87 %
02.11.2020 07:48 18,5 C 17,8 C 16,7 C 87 % 1008,0 hPa 0,0 l/m 0 min 0 min 7 W/m 35,4 km/h (5 Bft) 97,87 %
02.11.2020 07:50 18,5 C 17,8 C 16,7 C 87 % 1008,0 hPa 0,0 l/m 0 min 0 min 9 W/m 35,4 km/h (5 Bft) 97,83 %
02.11.2020 07:52 18,6 C 17,8 C 16,7 C 87 % 1008,0 hPa 0,0 l/m 0 min 0 min 10 W/m 22,5 km/h (4 Bft) 97,62 %
02.11.2020 07:54 18,6 C 17,8 C 16,7 C 87 % 1008,0 hPa 0,0 l/m 0 min 0 min 12 W/m 22,5 km/h (4 Bft) 100,00 %
02.11.2020 07:56 18,6 C 18,3 C 16,7 C 86 % 1008,0 hPa 0,0 l/m 0 min 0 min 14 W/m 32,2 km/h (5 Bft) 97,87 %
02.11.2020 07:58 18,6 C 18,3 C 16,7 C 86 % 1008,0 hPa 0,0 l/m 0 min 0 min 17 W/m 45,1 km/h (6 Bft) 97,83 %
02.11.2020 08:00 18,6 C 18,3 C 16,7 C 86 % 1008,0 hPa 0,0 l/m 0 min 0 min 20 W/m 22,5 km/h (4 Bft) 100,00 %
02.11.2020 08:02 18,6 C 18,3 C 16,7 C 86 % 1008,0 hPa 0,0 l/m 0 min 0 min 22 W/m 35,4 km/h (5 Bft) 100,00 %
02.11.2020 08:04 18,7 C 18,3 C 17,2 C 85 % 1008,1 hPa 0,0 l/m 0 min 0 min 23 W/m 35,4 km/h (5 Bft) 98,15 %
02.11.2020 08:06 18,7 C 18,3 C 16,7 C 85 % 1008,1 hPa 0,0 l/m 0 min 0 min 26 W/m 19,3 km/h (3 Bft) 100,00 %
02.11.2020 08:08 18,8 C 18,3 C 16,7 C 85 % 1008,0 hPa 0,0 l/m 0 min 0 min 28 W/m 25,7 km/h (4 Bft) 47,37 %
02.11.2020 08:10 18,8 C 18,3 C 16,7 C 85 % 1008,1 hPa 0,0 l/m 0 min 0 min 32 W/m 35,4 km/h (5 Bft) 100,00 %
02.11.2020 08:12 18,8 C 18,3 C 16,7 C 85 % 1008,1 hPa 0,0 l/m 0 min 0 min 32 W/m 32,2 km/h (5 Bft) 100,00 %
02.11.2020 08:14 18,8 C 18,3 C 17,2 C 85 % 1008,0 hPa 0,0 l/m 0 min 0 min 32 W/m 29,0 km/h (5 Bft) 100,00 %
02.11.2020 08:16 18,9 C 18,3 C 16,7 C 84 % 1008,0 hPa 0,0 l/m 0 min 0 min 32 W/m 32,2 km/h (5 Bft) 100,00 %
02.11.2020 08:18 18,9 C 18,3 C 16,7 C 84 % 1008,1 hPa 0,0 l/m 0 min 0 min 31 W/m 38,6 km/h (5 Bft) 100,00 %
02.11.2020 08:20 18,9 C 18,3 C 16,7 C 84 % 1008,1 hPa 0,0 l/m 0 min 0 min 33 W/m 35,4 km/h (5 Bft) 97,83 %
02.11.2020 08:22 18,9 C 18,3 C 16,7 C 84 % 1008,1 hPa 0,0 l/m 0 min 0 min 35 W/m 25,7 km/h (4 Bft) 97,87 %
02.11.2020 08:24 18,9 C 18,3 C 16,7 C 84 % 1008,1 hPa 0,0 l/m 0 min 0 min 32 W/m 29,0 km/h (5 Bft) 100,00 %
02.11.2020 08:26 18,9 C 18,3 C 16,7 C 84 % 1008,2 hPa 0,0 l/m 0 min 0 min 28 W/m 35,4 km/h (5 Bft) 100,00 %
02.11.2020 08:28 18,9 C 18,3 C 16,7 C 84 % 1008,3 hPa 0,0 l/m 0 min 0 min 32 W/m 32,2 km/h (5 Bft) 100,00 %
02.11.2020 08:30 18,9 C 18,3 C 16,7 C 83 % 1008,2 hPa 0,0 l/m 0 min 0 min 29 W/m 22,5 km/h (4 Bft) 100,00 %
02.11.2020 08:32 19,0 C 18,3 C 16,7 C 83 % 1008,3 hPa 0,0 l/m 0 min 0 min 34 W/m 25,7 km/h (4 Bft) 100,00 %
02.11.2020 08:34 19,0 C 18,3 C 16,7 C 83 % 1008,3 hPa 0,0 l/m 0 min 0 min 35 W/m 29,0 km/h (5 Bft) 100,00 %
02.11.2020 08:36 19,0 C 18,3 C 16,7 C 83 % 1008,3 hPa 0,0 l/m 0 min 0 min 37 W/m 32,2 km/h (5 Bft) 100,00 %
02.11.2020 08:38 19,0 C 18,3 C 17,2 C 83 % 1008,4 hPa 0,0 l/m 0 min 0 min 35 W/m 29,0 km/h (5 Bft) 100,00 %
02.11.2020 08:40 19,0 C 18,3 C 17,2 C 83 % 1008,4 hPa 0,0 l/m 0 min 0 min 31 W/m 45,1 km/h (6 Bft) 100,00 %
02.11.2020 08:42 19,0 C 18,3 C 16,7 C 83 % 1008,4 hPa 0,0 l/m 0 min 0 min 26 W/m 32,2 km/h (5 Bft) 100,00 %
02.11.2020 08:44 19,0 C 18,3 C 16,7 C 83 % 1008,4 hPa 0,0 l/m 0 min 0 min 25 W/m 38,6 km/h (5 Bft) 95,74 %
02.11.2020 08:46 19,0 C 18,3 C 16,7 C 83 % 1008,5 hPa 0,0 l/m 0 min 0 min 26 W/m 29,0 km/h (5 Bft) 100,00 %
02.11.2020 08:48 19,0 C 18,3 C 16,7 C 82 % 1008,4 hPa 0,0 l/m 0 min 0 min 27 W/m 29,0 km/h (5 Bft) 100,00 %
02.11.2020 08:50 19,0 C 18,3 C 16,7 C 82 % 1008,4 hPa 0,0 l/m 0 min 0 min 27 W/m 25,7 km/h (4 Bft) 97,96 %
02.11.2020 08:52 19,0 C 18,3 C 16,7 C 82 % 1008,4 hPa 0,0 l/m 0 min 0 min 26 W/m 22,5 km/h (4 Bft) 100,00 %
02.11.2020 08:54 19,0 C 18,3 C 16,7 C 82 % 1008,5 hPa 0,0 l/m 0 min 0 min 26 W/m 22,5 km/h (4 Bft) 100,00 %
02.11.2020 08:56 19,0 C 18,3 C 16,7 C 82 % 1008,7 hPa 0,0 l/m 0 min 0 min 24 W/m 16,1 km/h (3 Bft) 100,00 %
02.11.2020 08:58 19,0 C 18,3 C 16,7 C 82 % 1008,6 hPa 0,0 l/m 0 min 0 min 22 W/m 38,6 km/h (5 Bft) 100,00 %
02.11.2020 09:00 19,0 C 18,3 C 16,7 C 82 % 1008,7 hPa 0,0 l/m 0 min 0 min 23 W/m 25,7 km/h (4 Bft) 98,11 %
02.11.2020 09:02 19,0 C 18,3 C 16,7 C 82 % 1008,5 hPa 0,0 l/m 0 min 0 min 26 W/m 19,3 km/h (3 Bft) 95,45 %
02.11.2020 09:04 19,0 C 18,3 C 16,7 C 82 % 1008,6 hPa 0,0 l/m 0 min 0 min 27 W/m 29,0 km/h (5 Bft) 100,00 %
02.11.2020 09:06 19,0 C 18,3 C 16,7 C 82 % 1008,7 hPa 0,0 l/m 0 min 0 min 29 W/m 35,4 km/h (5 Bft) 97,96 %
02.11.2020 09:08 19,0 C 18,3 C 16,7 C 82 % 1008,7 hPa 0,0 l/m 0 min 0 min 33 W/m 29,0 km/h (5 Bft) 97,96 %
02.11.2020 09:10 19,0 C 18,3 C 16,7 C 82 % 1008,7 hPa 0,0 l/m 0 min 0 min 37 W/m 29,0 km/h (5 Bft) 97,92 %
02.11.2020 09:12 19,0 C 18,3 C 17,2 C 82 % 1008,8 hPa 0,0 l/m 0 min 0 min 43 W/m 29,0 km/h (5 Bft) 97,22 %
02.11.2020 09:14 19,0 C 18,3 C 17,2 C 81 % 1008,7 hPa 0,0 l/m 0 min 0 min 52 W/m 38,6 km/h (5 Bft) 97,92 %
02.11.2020 09:16 19,0 C 18,3 C 17,2 C 81 % 1008,6 hPa 0,0 l/m 0 min 0 min 57 W/m 32,2 km/h (5 Bft) 97,87 %
02.11.2020 09:18 19,0 C 18,3 C 16,7 C 81 % 1008,6 hPa 0,0 l/m 0 min 0 min 57 W/m 32,2 km/h (5 Bft) 96,23 %
02.11.2020 09:20 19,0 C 18,9 C 16,7 C 81 % 1008,6 hPa 0,0 l/m 0 min 0 min 80 W/m 25,7 km/h (4 Bft) 97,96 %
02.11.2020 09:22 19,0 C 18,9 C 17,2 C 81 % 1008,6 hPa 0,0 l/m 0 min 0 min 92 W/m 48,3 km/h (6 Bft) 100,00 %
02.11.2020 09:24 19,0 C 18,9 C 17,2 C 80 % 1008,5 hPa 0,0 l/m 0 min 0 min 86 W/m 29,0 km/h (5 Bft) 97,83 %
02.11.2020 09:26 19,1 C 18,9 C 17,2 C 80 % 1008,5 hPa 0,0 l/m 0 min 0 min 82 W/m 25,7 km/h (4 Bft) 97,96 %
02.11.2020 09:28 19,1 C 18,9 C 17,2 C 80 % 1008,6 hPa 0,0 l/m 0 min 0 min 70 W/m 25,7 km/h (4 Bft) 97,87 %
02.11.2020 09:30 19,1 C 18,9 C 17,2 C 80 % 1008,6 hPa 0,0 l/m 0 min 0 min 67 W/m 32,2 km/h (5 Bft) 97,87 %
02.11.2020 09:32 19,1 C 18,9 C 17,2 C 80 % 1008,6 hPa 0,0 l/m 0 min 0 min 72 W/m 35,4 km/h (5 Bft) 96,30 %
02.11.2020 09:34 19,1 C 18,9 C 17,2 C 79 % 1008,6 hPa 0,0 l/m 0 min 0 min 70 W/m 22,5 km/h (4 Bft) 97,37 %
02.11.2020 09:36 19,1 C 18,9 C 17,2 C 79 % 1008,6 hPa 0,0 l/m 0 min 0 min 69 W/m 35,4 km/h (5 Bft) 97,83 %
02.11.2020 09:38 19,1 C 18,9 C 17,2 C 79 % 1008,5 hPa 0,0 l/m 0 min 0 min 77 W/m 25,7 km/h (4 Bft) 95,74 %
02.11.2020 09:40 19,1 C 18,9 C 17,2 C 79 % 1008,6 hPa 0,0 l/m 0 min 0 min 83 W/m 38,6 km/h (5 Bft) 95,74 %
02.11.2020 09:42 19,1 C 18,9 C 17,2 C 78 % 1008,6 hPa 0,0 l/m 0 min 0 min 96 W/m 38,6 km/h (5 Bft) 95,74 %
02.11.2020 09:44 19,1 C 18,9 C 17,2 C 79 % 1008,8 hPa 0,0 l/m 0 min 0 min 95 W/m 29,0 km/h (5 Bft) 97,87 %
02.11.2020 09:46 19,2 C 18,9 C 17,2 C 78 % 1008,8 hPa 0,0 l/m 0 min 0 min 87 W/m 25,7 km/h (4 Bft) 93,62 %
02.11.2020 09:48 19,2 C 18,9 C 17,2 C 78 % 1008,8 hPa 0,0 l/m 0 min 0 min 81 W/m 38,6 km/h (5 Bft) 93,48 %
02.11.2020 09:50 19,3 C 18,9 C 17,2 C 78 % 1008,7 hPa 0,0 l/m 0 min 0 min 80 W/m 25,7 km/h (4 Bft) 97,87 %
02.11.2020 09:52 19,2 C 18,9 C 17,2 C 78 % 1008,6 hPa 0,0 l/m 0 min 0 min 84 W/m 25,7 km/h (4 Bft) 95,74 %
02.11.2020 09:54 19,3 C 18,9 C 17,2 C 77 % 1008,7 hPa 0,0 l/m 0 min 0 min 91 W/m 29,0 km/h (5 Bft) 95,74 %
02.11.2020 09:56 19,3 C 18,9 C 17,2 C 77 % 1008,8 hPa 0,0 l/m 0 min 0 min 118 W/m 19,3 km/h (3 Bft) 97,87 %
02.11.2020 09:58 19,3 C 18,9 C 17,2 C 77 % 1008,8 hPa 0,0 l/m 0 min 0 min 125 W/m 38,6 km/h (5 Bft) 95,74 %
02.11.2020 10:00 19,3 C 18,9 C 17,2 C 77 % 1008,8 hPa 0,0 l/m 0 min 0 min 137 W/m 29,0 km/h (5 Bft) 93,48 %
02.11.2020 10:02 19,3 C 18,9 C 17,2 C 77 % 1008,8 hPa 0,0 l/m 0 min 0 min 135 W/m 32,2 km/h (5 Bft) 95,83 %
02.11.2020 10:04 19,4 C 18,9 C 17,2 C 77 % 1008,8 hPa 0,0 l/m 0 min 0 min 127 W/m 35,4 km/h (5 Bft) 95,74 %
02.11.2020 10:06 19,4 C 18,9 C 17,2 C 76 % 1008,9 hPa 0,0 l/m 0 min 0 min 113 W/m 41,8 km/h (6 Bft) 95,74 %
02.11.2020 10:08 19,4 C 18,9 C 17,2 C 76 % 1008,9 hPa 0,0 l/m 0 min 0 min 99 W/m 22,5 km/h (4 Bft) 95,83 %
02.11.2020 10:10 19,4 C 18,9 C 17,2 C 77 % 1008,8 hPa 0,0 l/m 0 min 0 min 103 W/m 25,7 km/h (4 Bft) 95,65 %
02.11.2020 10:12 19,4 C 18,9 C 17,2 C 77 % 1008,8 hPa 0,0 l/m 0 min 0 min 110 W/m 29,0 km/h (5 Bft) 93,62 %
02.11.2020 10:14 19,4 C 18,9 C 17,2 C 77 % 1008,8 hPa 0,0 l/m 0 min 0 min 116 W/m 35,4 km/h (5 Bft) 95,74 %
02.11.2020 10:16 19,4 C 18,9 C 17,2 C 76 % 1008,8 hPa 0,0 l/m 0 min 0 min 111 W/m 41,8 km/h (6 Bft) 93,62 %
02.11.2020 10:18 19,4 C 18,9 C 17,2 C 76 % 1008,7 hPa 0,0 l/m 0 min 0 min 114 W/m 32,2 km/h (5 Bft) 95,74 %
02.11.2020 10:20 19,4 C 19,4 C 17,2 C 76 % 1008,7 hPa 0,0 l/m 0 min 0 min 136 W/m 32,2 km/h (5 Bft) 95,74 %
02.11.2020 10:22 19,5 C 19,4 C 17,2 C 76 % 1008,8 hPa 0,0 l/m 0 min 0 min 153 W/m 38,6 km/h (5 Bft) 95,65 %
02.11.2020 10:24 19,5 C 19,4 C 17,2 C 76 % 1008,6 hPa 0,0 l/m 0 min 0 min 147 W/m 29,0 km/h (5 Bft) 93,62 %
02.11.2020 10:26 19,5 C 19,4 C 17,2 C 76 % 1008,8 hPa 0,0 l/m 0 min 0 min 124 W/m 22,5 km/h (4 Bft) 95,24 %
02.11.2020 10:28 19,5 C 18,9 C 17,2 C 76 % 1008,7 hPa 0,0 l/m 0 min 0 min 108 W/m 29,0 km/h (5 Bft) 95,74 %
02.11.2020 10:30 19,5 C 19,4 C 17,2 C 76 % 1008,9 hPa 0,0 l/m 0 min 0 min 115 W/m 32,2 km/h (5 Bft) 95,65 %
02.11.2020 10:32 19,5 C 19,4 C 17,2 C 76 % 1008,6 hPa 0,0 l/m 0 min 0 min 128 W/m 25,7 km/h (4 Bft) 94,44 %
02.11.2020 10:34 19,5 C 19,4 C 17,8 C 77 % 1008,6 hPa 0,0 l/m 0 min 0 min 161 W/m 25,7 km/h (4 Bft) 95,12 %
02.11.2020 10:36 19,6 C 19,4 C 17,8 C 76 % 1008,7 hPa 0,0 l/m 0 min 0 min 166 W/m 35,4 km/h (5 Bft) 97,87 %
02.11.2020 10:38 19,6 C 19,4 C 17,8 C 76 % 1008,6 hPa 0,0 l/m 0 min 0 min 142 W/m 38,6 km/h (5 Bft) 97,87 %
02.11.2020 10:40 19,6 C 19,4 C 17,8 C 76 % 1008,7 hPa 0,0 l/m 0 min 0 min 108 W/m 38,6 km/h (5 Bft) 97,83 %
02.11.2020 10:42 19,6 C 19,4 C 17,8 C 76 % 1008,5 hPa 0,0 l/m 0 min 0 min 112 W/m 25,7 km/h (4 Bft) 95,74 %
02.11.2020 10:44 19,6 C 19,4 C 17,8 C 76 % 1008,6 hPa 0,0 l/m 0 min 0 min 116 W/m 25,7 km/h (4 Bft) 97,87 %
02.11.2020 10:46 19,6 C 19,4 C 17,8 C 76 % 1008,7 hPa 0,0 l/m 0 min 0 min 121 W/m 41,8 km/h (6 Bft) 97,87 %
02.11.2020 10:48 19,6 C 19,4 C 17,8 C 76 % 1008,5 hPa 0,0 l/m 0 min 0 min 138 W/m 41,8 km/h (6 Bft) 97,92 %
02.11.2020 10:50 19,7 C 19,4 C 17,8 C 76 % 1008,5 hPa 0,0 l/m 0 min 0 min 153 W/m 32,2 km/h (5 Bft) 95,83 %
02.11.2020 10:52 19,7 C 19,4 C 17,8 C 77 % 1008,4 hPa 0,0 l/m 0 min 0 min 150 W/m 25,7 km/h (4 Bft) 98,11 %
02.11.2020 10:54 19,7 C 19,4 C 17,8 C 77 % 1008,4 hPa 0,0 l/m 0 min 0 min 148 W/m 25,7 km/h (4 Bft) 97,87 %
02.11.2020 10:56 19,7 C 19,4 C 17,8 C 77 % 1008,2 hPa 0,0 l/m 0 min 0 min 140 W/m 25,7 km/h (4 Bft) 100,00 %
02.11.2020 10:58 19,7 C 19,4 C 17,8 C 77 % 1008,2 hPa 0,0 l/m 0 min 0 min 127 W/m 25,7 km/h (4 Bft) 100,00 %
02.11.2020 11:00 19,8 C 19,4 C 17,8 C 77 % 1008,3 hPa 0,0 l/m 0 min 0 min 128 W/m 32,2 km/h (5 Bft) 100,00 %
02.11.2020 11:02 19,8 C 19,4 C 17,8 C 77 % 1008,4 hPa 0,0 l/m 0 min 0 min 136 W/m 32,2 km/h (5 Bft) 100,00 %
02.11.2020 11:04 19,8 C 19,4 C 17,8 C 77 % 1008,3 hPa 0,0 l/m 0 min 0 min 151 W/m 29,0 km/h (5 Bft) 100,00 %
02.11.2020 11:06 19,8 C 19,4 C 17,8 C 77 % 1008,2 hPa 0,0 l/m 0 min 0 min 156 W/m 48,3 km/h (6 Bft) 100,00 %
02.11.2020 11:08 19,8 C 19,4 C 17,8 C 77 % 1008,1 hPa 0,0 l/m 0 min 0 min 142 W/m 29,0 km/h (5 Bft) 100,00 %
02.11.2020 11:10 19,8 C 19,4 C 17,8 C 77 % 1008,0 hPa 0,0 l/m 0 min 0 min 124 W/m 29,0 km/h (5 Bft) 100,00 %
02.11.2020 11:12 19,8 C 19,4 C 17,8 C 77 % 1008,1 hPa 0,0 l/m 0 min 0 min 121 W/m 25,7 km/h (4 Bft) 100,00 %
02.11.2020 11:14 19,8 C 19,4 C 17,8 C 77 % 1008,1 hPa 0,0 l/m 0 min 0 min 151 W/m 29,0 km/h (5 Bft) 100,00 %
02.11.2020 11:16 19,8 C 20,0 C 17,8 C 78 % 1008,3 hPa 0,0 l/m 0 min 0 min 189 W/m 29,0 km/h (5 Bft) 100,00 %
02.11.2020 11:18 19,8 C 20,0 C 17,8 C 78 % 1008,5 hPa 0,0 l/m 0 min 0 min 173 W/m 32,2 km/h (5 Bft) 100,00 %
02.11.2020 11:20 19,8 C 20,0 C 17,8 C 78 % 1008,5 hPa 0,0 l/m 0 min 0 min 176 W/m 35,4 km/h (5 Bft) 100,00 %
02.11.2020 11:22 19,8 C 20,0 C 17,8 C 78 % 1008,5 hPa 0,0 l/m 2 min 0 min 207 W/m 41,8 km/h (6 Bft) 97,92 %
02.11.2020 11:24 19,8 C 20,6 C 17,8 C 78 % 1008,5 hPa 0,0 l/m 0 min 0 min 186 W/m 29,0 km/h (5 Bft) 100,00 %
02.11.2020 11:26 19,8 C 20,0 C 17,8 C 78 % 1008,6 hPa 0,0 l/m 0 min 0 min 155 W/m 29,0 km/h (5 Bft) 100,00 %
02.11.2020 11:28 19,9 C 20,0 C 17,8 C 78 % 1008,5 hPa 0,0 l/m 0 min 0 min 144 W/m 25,7 km/h (4 Bft) 100,00 %
02.11.2020 11:30 19,9 C 20,0 C 17,8 C 79 % 1008,5 hPa 0,0 l/m 0 min 0 min 172 W/m 22,5 km/h (4 Bft) 100,00 %
02.11.2020 11:32 19,9 C 20,6 C 17,8 C 79 % 1008,6 hPa 0,0 l/m 2 min 0 min 265 W/m 41,8 km/h (6 Bft) 100,00 %
02.11.2020 11:34 19,9 C 20,6 C 17,8 C 79 % 1008,6 hPa 0,0 l/m 0 min 0 min 180 W/m 22,5 km/h (4 Bft) 95,74 %
02.11.2020 11:36 19,9 C 20,0 C 17,8 C 79 % 1008,6 hPa 0,0 l/m 0 min 0 min 148 W/m 25,7 km/h (4 Bft) 97,87 %
02.11.2020 11:38 19,9 C 20,0 C 17,8 C 79 % 1008,6 hPa 0,0 l/m 0 min 0 min 133 W/m 32,2 km/h (5 Bft) 97,87 %
02.11.2020 11:40 19,9 C 19,4 C 17,8 C 79 % 1008,6 hPa 0,0 l/m 0 min 0 min 120 W/m 22,5 km/h (4 Bft) 97,87 %
02.11.2020 11:42 19,9 C 19,4 C 17,8 C 79 % 1008,6 hPa 0,0 l/m 0 min 0 min 106 W/m 45,1 km/h (6 Bft) 97,83 %
02.11.2020 11:44 19,9 C 19,4 C 17,8 C 79 % 1008,6 hPa 0,0 l/m 0 min 0 min 99 W/m 35,4 km/h (5 Bft) 97,87 %
02.11.2020 11:46 19,9 C 19,4 C 17,8 C 79 % 1008,6 hPa 0,0 l/m 0 min 0 min 106 W/m 32,2 km/h (5 Bft) 95,74 %
02.11.2020 11:48 19,9 C 19,4 C 17,8 C 79 % 1008,5 hPa 0,0 l/m 0 min 0 min 113 W/m 29,0 km/h (5 Bft) 97,87 %
02.11.2020 11:50 19,9 C 19,4 C 17,8 C 80 % 1008,7 hPa 0,0 l/m 0 min 0 min 119 W/m 25,7 km/h (4 Bft) 93,62 %
02.11.2020 11:52 19,9 C 19,4 C 17,8 C 80 % 1008,5 hPa 0,0 l/m 0 min 0 min 137 W/m 19,3 km/h (3 Bft) 97,87 %
02.11.2020 11:54 19,9 C 19,4 C 17,8 C 80 % 1008,5 hPa 0,0 l/m 0 min 0 min 148 W/m 25,7 km/h (4 Bft) 97,83 %
02.11.2020 11:56 19,9 C 19,4 C 17,8 C 80 % 1008,6 hPa 0,0 l/m 0 min 0 min 143 W/m 45,1 km/h (6 Bft) 97,87 %
02.11.2020 11:58 19,9 C 19,4 C 17,8 C 80 % 1008,4 hPa 0,0 l/m 0 min 0 min 129 W/m 29,0 km/h (5 Bft) 97,87 %
02.11.2020 12:00 19,9 C 19,4 C 17,8 C 80 % 1008,5 hPa 0,0 l/m 0 min 0 min 120 W/m 25,7 km/h (4 Bft) 95,74 %
02.11.2020 12:02 19,9 C 19,4 C 17,8 C 80 % 1008,5 hPa 0,0 l/m 0 min 0 min 99 W/m 38,6 km/h (5 Bft) 97,62 %
02.11.2020 12:04 19,9 C 19,4 C 17,8 C 80 % 1008,6 hPa 0,0 l/m 0 min 0 min 78 W/m 32,2 km/h (5 Bft) 97,92 %
02.11.2020 12:08 19,9 C 18,9 C 17,8 C 80 % 1008,7 hPa 0,0 l/m 0 min 0 min 68 W/m 38,6 km/h (5 Bft) 96,84 %
02.11.2020 12:10 19,9 C 19,4 C 18,4 C 80 % 1008,7 hPa 0,0 l/m 0 min 0 min 65 W/m 29,0 km/h (5 Bft) 97,87 %
02.11.2020 12:12 19,9 C 19,4 C 18,4 C 80 % 1008,5 hPa 0,0 l/m 0 min 0 min 61 W/m 38,6 km/h (5 Bft) 97,87 %
02.11.2020 12:14 19,9 C 19,4 C 18,4 C 80 % 1008,7 hPa 0,0 l/m 0 min 0 min 82 W/m 25,7 km/h (4 Bft) 97,87 %
02.11.2020 12:16 19,9 C 19,4 C 18,4 C 80 % 1008,5 hPa 0,0 l/m 0 min 0 min 93 W/m 22,5 km/h (4 Bft) 100,00 %
02.11.2020 12:18 19,9 C 19,4 C 18,4 C 80 % 1008,5 hPa 0,0 l/m 0 min 0 min 82 W/m 41,8 km/h (6 Bft) 100,00 %
02.11.2020 12:20 19,9 C 19,4 C 18,4 C 80 % 1008,5 hPa 0,0 l/m 0 min 0 min 60 W/m 48,3 km/h (6 Bft) 100,00 %
02.11.2020 12:22 19,9 C 19,4 C 18,4 C 80 % 1008,5 hPa 0,0 l/m 0 min 0 min 53 W/m 35,4 km/h (5 Bft) 100,00 %
02.11.2020 12:24 19,9 C 19,4 C 18,4 C 80 % 1008,5 hPa 0,0 l/m 0 min 0 min 53 W/m 32,2 km/h (5 Bft) 97,87 %
02.11.2020 12:26 19,9 C 19,4 C 17,8 C 80 % 1008,4 hPa 0,0 l/m 0 min 0 min 59 W/m 25,7 km/h (4 Bft) 100,00 %
02.11.2020 12:28 19,9 C 19,4 C 18,4 C 80 % 1008,5 hPa 0,0 l/m 0 min 0 min 63 W/m 32,2 km/h (5 Bft) 100,00 %
02.11.2020 12:30 19,9 C 19,4 C 18,4 C 80 % 1008,4 hPa 0,0 l/m 0 min 0 min 61 W/m 32,2 km/h (5 Bft) 100,00 %
02.11.2020 12:32 19,9 C 19,4 C 18,4 C 81 % 1008,5 hPa 0,0 l/m 0 min 0 min 62 W/m 38,6 km/h (5 Bft) 100,00 %
02.11.2020 12:34 19,9 C 19,4 C 18,4 C 80 % 1008,4 hPa 0,0 l/m 0 min 0 min 67 W/m 35,4 km/h (5 Bft) 100,00 %
02.11.2020 12:36 19,9 C 19,4 C 18,4 C 80 % 1008,5 hPa 0,0 l/m 0 min 0 min 68 W/m 29,0 km/h (5 Bft) 100,00 %
02.11.2020 12:38 19,9 C 19,4 C 18,4 C 80 % 1008,6 hPa 0,0 l/m 0 min 0 min 76 W/m 25,7 km/h (4 Bft) 100,00 %
02.11.2020 12:40 19,9 C 19,4 C 18,4 C 80 % 1008,4 hPa 0,0 l/m 0 min 0 min 88 W/m 22,5 km/h (4 Bft) 100,00 %
02.11.2020 12:42 19,9 C 19,4 C 18,4 C 80 % 1008,4 hPa 0,0 l/m 0 min 0 min 128 W/m 25,7 km/h (4 Bft) 100,00 %
02.11.2020 12:44 20,0 C 20,0 C 18,4 C 80 % 1008,3 hPa 0,0 l/m 0 min 0 min 154 W/m 25,7 km/h (4 Bft) 97,87 %
02.11.2020 12:46 20,0 C 20,0 C 18,4 C 80 % 1008,3 hPa 0,0 l/m 0 min 0 min 137 W/m 22,5 km/h (4 Bft) 100,00 %
02.11.2020 12:48 20,0 C 20,0 C 18,4 C 80 % 1008,4 hPa 0,0 l/m 0 min 0 min 121 W/m 22,5 km/h (4 Bft) 100,00 %
02.11.2020 12:50 20,0 C 20,0 C 18,4 C 80 % 1008,3 hPa 0,0 l/m 0 min 0 min 116 W/m 16,1 km/h (3 Bft) 97,87 %
02.11.2020 12:52 20,1 C 20,0 C 18,4 C 80 % 1008,3 hPa 0,0 l/m 0 min 0 min 141 W/m 19,3 km/h (3 Bft) 95,65 %
02.11.2020 12:54 20,1 C 20,0 C 18,9 C 80 % 1008,3 hPa 0,0 l/m 0 min 0 min 167 W/m 29,0 km/h (5 Bft) 97,87 %
02.11.2020 12:56 20,1 C 20,6 C 18,9 C 80 % 1008,2 hPa 0,0 l/m 0 min 0 min 196 W/m 38,6 km/h (5 Bft) 95,24 %
02.11.2020 12:58 20,2 C 20,0 C 18,9 C 80 % 1008,5 hPa 0,0 l/m 0 min 0 min 122 W/m 45,1 km/h (6 Bft) 97,96 %
02.11.2020 13:00 20,3 C 20,0 C 18,9 C 80 % 1008,4 hPa 0,0 l/m 0 min 0 min 106 W/m 35,4 km/h (5 Bft) 95,74 %
02.11.2020 13:02 20,3 C 20,0 C 18,9 C 80 % 1008,4 hPa 0,0 l/m 0 min 0 min 115 W/m 35,4 km/h (5 Bft) 96,00 %
02.11.2020 13:04 20,3 C 20,0 C 18,9 C 79 % 1008,3 hPa 0,0 l/m 0 min 0 min 118 W/m 32,2 km/h (5 Bft) 97,87 %
02.11.2020 13:06 20,4 C 20,0 C 18,9 C 79 % 1008,3 hPa 0,0 l/m 0 min 0 min 112 W/m 29,0 km/h (5 Bft) 97,87 %
02.11.2020 13:08 20,4 C 20,0 C 18,9 C 79 % 1008,2 hPa 0,0 l/m 0 min 0 min 119 W/m 32,2 km/h (5 Bft) 97,87 %
02.11.2020 13:10 20,4 C 20,0 C 18,9 C 79 % 1008,1 hPa 0,0 l/m 0 min 0 min 110 W/m 29,0 km/h (5 Bft) 95,74 %
02.11.2020 13:12 20,4 C 20,0 C 18,9 C 79 % 1008,2 hPa 0,0 l/m 0 min 0 min 124 W/m 41,8 km/h (6 Bft) 97,87 %
02.11.2020 13:14 20,5 C 20,0 C 18,9 C 79 % 1008,2 hPa 0,0 l/m 0 min 0 min 157 W/m 61,2 km/h (7 Bft) 95,65 %
02.11.2020 13:16 20,5 C 20,0 C 18,9 C 79 % 1008,1 hPa 0,0 l/m 0 min 0 min 132 W/m 29,0 km/h (5 Bft) 95,74 %
02.11.2020 13:18 20,5 C 20,6 C 18,9 C 79 % 1008,3 hPa 0,0 l/m 0 min 0 min 163 W/m 35,4 km/h (5 Bft) 95,74 %
02.11.2020 13:20 20,5 C 20,0 C 18,9 C 79 % 1008,1 hPa 0,0 l/m 0 min 0 min 133 W/m 48,3 km/h (6 Bft) 95,74 %
02.11.2020 13:22 20,5 C 20,0 C 18,9 C 79 % 1008,2 hPa 0,0 l/m 0 min 0 min 92 W/m 35,4 km/h (5 Bft) 93,62 %
02.11.2020 13:24 20,5 C 20,0 C 18,9 C 79 % 1008,1 hPa 0,0 l/m 0 min 0 min 92 W/m 45,1 km/h (6 Bft) 95,74 %
02.11.2020 13:26 20,5 C 20,0 C 18,4 C 79 % 1008,1 hPa 0,0 l/m 0 min 0 min 86 W/m 45,1 km/h (6 Bft) 93,48 %
02.11.2020 13:28 20,5 C 20,0 C 18,9 C 79 % 1008,2 hPa 0,0 l/m 0 min 0 min 92 W/m 32,2 km/h (5 Bft) 93,62 %
02.11.2020 13:30 20,5 C 20,0 C 18,9 C 79 % 1008,4 hPa 0,0 l/m 0 min 0 min 123 W/m 45,1 km/h (6 Bft) 93,62 %
02.11.2020 13:32 20,5 C 20,0 C 18,9 C 79 % 1008,0 hPa 0,0 l/m 0 min 0 min 130 W/m 41,8 km/h (6 Bft) 97,22 %
02.11.2020 13:34 20,5 C 20,0 C 18,9 C 79 % 1008,1 hPa 0,0 l/m 0 min 0 min 124 W/m 45,1 km/h (6 Bft) 95,74 %
02.11.2020 13:36 20,6 C 20,0 C 18,9 C 79 % 1008,0 hPa 0,0 l/m 0 min 0 min 119 W/m 41,8 km/h (6 Bft) 93,22 %
02.11.2020 13:38 20,6 C 20,0 C 18,9 C 79 % 1008,0 hPa 0,0 l/m 0 min 0 min 117 W/m 38,6 km/h (5 Bft) 95,65 %
02.11.2020 13:40 20,6 C 20,0 C 18,9 C 79 % 1008,0 hPa 0,0 l/m 0 min 0 min 100 W/m 54,7 km/h (7 Bft) 93,62 %
02.11.2020 13:42 20,6 C 20,0 C 18,9 C 79 % 1008,0 hPa 0,0 l/m 0 min 0 min 95 W/m 48,3 km/h (6 Bft) 93,62 %
02.11.2020 13:44 20,6 C 20,0 C 18,9 C 79 % 1008,0 hPa 0,0 l/m 0 min 0 min 70 W/m 29,0 km/h (5 Bft) 94,29 %
02.11.2020 13:46 20,6 C 20,0 C 18,4 C 79 % 1008,1 hPa 0,0 l/m 0 min 0 min 69 W/m 35,4 km/h (5 Bft) 98,31 %
02.11.2020 13:48 20,6 C 20,0 C 18,9 C 79 % 1008,0 hPa 0,0 l/m 0 min 0 min 85 W/m 38,6 km/h (5 Bft) 93,48 %
02.11.2020 13:50 20,6 C 20,0 C 18,9 C 79 % 1008,0 hPa 0,0 l/m 0 min 0 min 89 W/m 35,4 km/h (5 Bft) 96,67 %
02.11.2020 13:52 20,6 C 20,0 C 18,9 C 79 % 1008,5 hPa 0,0 l/m 0 min 0 min 93 W/m 54,7 km/h (7 Bft) 98,31 %
02.11.2020 13:54 20,6 C 20,0 C 18,9 C 79 % 1008,1 hPa 0,0 l/m 0 min 0 min 124 W/m 54,7 km/h (7 Bft) 97,87 %
02.11.2020 13:56 20,6 C 20,6 C 18,9 C 79 % 1008,0 hPa 0,0 l/m 0 min 0 min 147 W/m 29,0 km/h (5 Bft) 97,14 %
02.11.2020 13:58 20,7 C 20,6 C 18,9 C 79 % 1008,3 hPa 0,0 l/m 2 min 0 min 181 W/m 45,1 km/h (6 Bft) 95,74 %
02.11.2020 14:00 20,8 C 21,7 C 18,9 C 79 % 1008,0 hPa 0,0 l/m 2 min 0 min 273 W/m 38,6 km/h (5 Bft) 97,83 %
02.11.2020 14:02 20,8 C 22,8 C 19,5 C 79 % 1008,1 hPa 0,0 l/m 2 min 0 min 371 W/m 41,8 km/h (6 Bft) 96,00 %
02.11.2020 14:04 20,9 C 23,9 C 19,5 C 79 % 1008,0 hPa 0,0 l/m 2 min 0 min 349 W/m 35,4 km/h (5 Bft) 95,74 %
02.11.2020 14:06 21,0 C 23,9 C 19,5 C 79 % 1007,9 hPa 0,0 l/m 2 min 0 min 346 W/m 22,5 km/h (4 Bft) 95,74 %
02.11.2020 14:08 21,1 C 23,3 C 20,0 C 79 % 1007,9 hPa 0,0 l/m 2 min 0 min 390 W/m 38,6 km/h (5 Bft) 97,92 %
02.11.2020 14:10 21,2 C 22,2 C 19,5 C 78 % 1008,0 hPa 0,0 l/m 2 min 0 min 261 W/m 41,8 km/h (6 Bft) 97,87 %
02.11.2020 14:12 21,3 C 21,7 C 19,5 C 78 % 1008,0 hPa 0,0 l/m 2 min 0 min 243 W/m 32,2 km/h (5 Bft) 97,87 %
02.11.2020 14:14 21,3 C 21,1 C 19,5 C 78 % 1008,1 hPa 0,0 l/m 2 min 0 min 202 W/m 45,1 km/h (6 Bft) 95,74 %
02.11.2020 14:16 21,3 C 21,1 C 19,5 C 78 % 1008,1 hPa 0,0 l/m 0 min 0 min 161 W/m 22,5 km/h (4 Bft) 97,92 %
02.11.2020 14:18 21,3 C 20,6 C 18,9 C 78 % 1008,2 hPa 0,0 l/m 0 min 0 min 136 W/m 25,7 km/h (4 Bft) 97,87 %
02.11.2020 14:20 21,3 C 20,6 C 18,9 C 78 % 1008,1 hPa 0,0 l/m 0 min 0 min 93 W/m 45,1 km/h (6 Bft) 95,74 %
02.11.2020 14:22 21,1 C 20,0 C 18,9 C 78 % 1008,1 hPa 0,0 l/m 0 min 0 min 69 W/m 38,6 km/h (5 Bft) 98,15 %
02.11.2020 14:24 21,1 C 20,0 C 18,9 C 78 % 1008,1 hPa 0,0 l/m 0 min 0 min 66 W/m 32,2 km/h (5 Bft) 97,87 %
02.11.2020 14:26 21,0 C 20,0 C 18,9 C 78 % 1008,3 hPa 0,0 l/m 0 min 0 min 67 W/m 38,6 km/h (5 Bft) 97,83 %
02.11.2020 14:28 21,0 C 20,0 C 18,9 C 78 % 1008,1 hPa 0,0 l/m 0 min 0 min 91 W/m 22,5 km/h (4 Bft) 95,74 %
02.11.2020 14:30 21,0 C 20,0 C 18,4 C 79 % 1008,1 hPa 0,0 l/m 0 min 0 min 53 W/m 45,1 km/h (6 Bft) 97,62 %
02.11.2020 14:32 20,9 C 20,0 C 18,4 C 79 % 1008,2 hPa 0,0 l/m 0 min 0 min 36 W/m 35,4 km/h (5 Bft) 97,92 %
02.11.2020 14:34 20,9 C 20,0 C 18,4 C 79 % 1008,2 hPa 0,0 l/m 0 min 0 min 37 W/m 32,2 km/h (5 Bft) 97,92 %
02.11.2020 14:36 20,8 C 20,0 C 18,4 C 79 % 1008,2 hPa 0,0 l/m 0 min 0 min 39 W/m 22,5 km/h (4 Bft) 97,87 %
02.11.2020 14:38 20,8 C 20,0 C 18,4 C 79 % 1008,0 hPa 0,0 l/m 0 min 0 min 43 W/m 41,8 km/h (6 Bft) 97,87 %
02.11.2020 14:40 20,7 C 19,4 C 18,4 C 79 % 1008,4 hPa 0,0 l/m 0 min 0 min 37 W/m 32,2 km/h (5 Bft) 95,83 %
02.11.2020 14:42 20,6 C 20,0 C 18,4 C 79 % 1008,3 hPa 0,0 l/m 0 min 0 min 39 W/m 51,5 km/h (7 Bft) 97,87 %
02.11.2020 14:44 20,6 C 19,4 C 18,4 C 79 % 1008,3 hPa 0,0 l/m 0 min 0 min 41 W/m 29,0 km/h (5 Bft) 95,65 %
02.11.2020 14:46 20,6 C 19,4 C 18,4 C 80 % 1008,3 hPa 0,0 l/m 0 min 0 min 39 W/m 35,4 km/h (5 Bft) 95,83 %
02.11.2020 14:48 20,6 C 19,4 C 18,4 C 80 % 1008,3 hPa 0,0 l/m 0 min 0 min 40 W/m 38,6 km/h (5 Bft) 100,00 %
02.11.2020 14:50 20,5 C 19,4 C 18,4 C 80 % 1008,4 hPa 0,0 l/m 0 min 0 min 37 W/m 29,0 km/h (5 Bft) 100,00 %
02.11.2020 14:52 20,5 C 19,4 C 18,4 C 80 % 1008,4 hPa 0,0 l/m 0 min 0 min 45 W/m 12,9 km/h (3 Bft) 100,00 %
02.11.2020 14:54 20,5 C 19,4 C 18,4 C 80 % 1008,4 hPa 0,0 l/m 0 min 0 min 44 W/m 29,0 km/h (5 Bft) 97,87 %
02.11.2020 14:56 20,5 C 19,4 C 18,4 C 80 % 1008,5 hPa 0,0 l/m 0 min 0 min 39 W/m 29,0 km/h (5 Bft) 97,87 %
02.11.2020 14:58 20,5 C 19,4 C 18,4 C 80 % 1008,5 hPa 0,0 l/m 0 min 0 min 38 W/m 22,5 km/h (4 Bft) 100,00 %
02.11.2020 15:00 20,4 C 19,4 C 18,4 C 81 % 1008,4 hPa 0,0 l/m 0 min 0 min 45 W/m 25,7 km/h (4 Bft) 100,00 %
02.11.2020 15:02 20,4 C 19,4 C 18,4 C 81 % 1008,3 hPa 0,0 l/m 0 min 0 min 47 W/m 25,7 km/h (4 Bft) 95,74 %
02.11.2020 15:04 20,4 C 19,4 C 18,4 C 81 % 1008,4 hPa 0,0 l/m 0 min 0 min 50 W/m 22,5 km/h (4 Bft) 96,00 %
02.11.2020 15:06 20,4 C 19,4 C 18,4 C 81 % 1008,4 hPa 0,0 l/m 0 min 0 min 57 W/m 25,7 km/h (4 Bft) 100,00 %
02.11.2020 15:08 20,4 C 19,4 C 18,4 C 81 % 1008,3 hPa 0,0 l/m 0 min 0 min 72 W/m 25,7 km/h (4 Bft) 100,00 %
02.11.2020 15:10 20,3 C 20,0 C 18,4 C 81 % 1008,4 hPa 0,0 l/m 0 min 0 min 114 W/m 29,0 km/h (5 Bft) 100,00 %
02.11.2020 15:12 20,4 C 20,0 C 18,4 C 81 % 1008,4 hPa 0,0 l/m 0 min 0 min 96 W/m 35,4 km/h (5 Bft) 100,00 %
02.11.2020 15:14 20,4 C 20,0 C 18,4 C 81 % 1008,4 hPa 0,0 l/m 0 min 0 min 89 W/m 41,8 km/h (6 Bft) 97,87 %
02.11.2020 15:16 20,4 C 20,0 C 18,4 C 81 % 1008,5 hPa 0,0 l/m 0 min 0 min 67 W/m 32,2 km/h (5 Bft) 100,00 %
02.11.2020 15:18 20,4 C 20,0 C 18,4 C 81 % 1008,3 hPa 0,0 l/m 0 min 0 min 80 W/m 29,0 km/h (5 Bft) 100,00 %
02.11.2020 15:20 20,4 C 20,0 C 18,4 C 81 % 1008,3 hPa 0,0 l/m 0 min 0 min 79 W/m 38,6 km/h (5 Bft) 100,00 %
02.11.2020 15:22 20,4 C 20,0 C 18,4 C 81 % 1008,5 hPa 0,0 l/m 2 min 0 min 112 W/m 45,1 km/h (6 Bft) 97,87 %
02.11.2020 15:24 20,4 C 20,0 C 18,4 C 81 % 1008,4 hPa 0,0 l/m 2 min 0 min 115 W/m 19,3 km/h (3 Bft) 100,00 %
02.11.2020 15:26 20,4 C 20,0 C 18,4 C 81 % 1008,3 hPa 0,0 l/m 0 min 0 min 90 W/m 32,2 km/h (5 Bft) 100,00 %
02.11.2020 15:28 20,4 C 20,0 C 18,4 C 81 % 1008,2 hPa 0,0 l/m 0 min 0 min 70 W/m 32,2 km/h (5 Bft) 100,00 %
02.11.2020 15:30 20,4 C 20,0 C 18,4 C 81 % 1008,3 hPa 0,0 l/m 0 min 0 min 74 W/m 35,4 km/h (5 Bft) 100,00 %
02.11.2020 15:32 20,5 C 20,0 C 18,4 C 81 % 1008,3 hPa 0,0 l/m 0 min 0 min 96 W/m 35,4 km/h (5 Bft) 100,00 %
02.11.2020 15:34 20,4 C 20,0 C 18,4 C 81 % 1008,3 hPa 0,0 l/m 0 min 0 min 91 W/m 41,8 km/h (6 Bft) 100,00 %
02.11.2020 15:36 20,5 C 20,0 C 18,4 C 81 % 1008,3 hPa 0,0 l/m 0 min 0 min 73 W/m 41,8 km/h (6 Bft) 100,00 %
02.11.2020 15:38 20,5 C 20,0 C 18,4 C 81 % 1008,3 hPa 0,0 l/m 0 min 0 min 74 W/m 25,7 km/h (4 Bft) 100,00 %
02.11.2020 15:40 20,5 C 20,0 C 18,4 C 81 % 1008,2 hPa 0,0 l/m 0 min 0 min 63 W/m 41,8 km/h (6 Bft) 100,00 %
02.11.2020 15:42 20,5 C 20,0 C 18,4 C 81 % 1008,3 hPa 0,0 l/m 0 min 0 min 67 W/m 51,5 km/h (7 Bft) 100,00 %
02.11.2020 15:44 20,4 C 19,4 C 18,4 C 80 % 1008,2 hPa 0,0 l/m 0 min 0 min 39 W/m 45,1 km/h (6 Bft) 100,00 %
02.11.2020 15:46 20,4 C 19,4 C 18,4 C 81 % 1008,2 hPa 0,0 l/m 0 min 0 min 24 W/m 48,3 km/h (6 Bft) 97,83 %
02.11.2020 15:48 20,4 C 19,4 C 18,4 C 81 % 1008,3 hPa 0,0 l/m 0 min 0 min 23 W/m 29,0 km/h (5 Bft) 100,00 %
02.11.2020 15:50 20,4 C 19,4 C 18,4 C 81 % 1008,4 hPa 0,0 l/m 0 min 0 min 26 W/m 32,2 km/h (5 Bft) 100,00 %
02.11.2020 15:52 20,4 C 19,4 C 18,4 C 81 % 1008,1 hPa 0,0 l/m 0 min 0 min 29 W/m 22,5 km/h (4 Bft) 100,00 %
02.11.2020 15:54 20,4 C 19,4 C 18,4 C 81 % 1008,1 hPa 0,0 l/m 0 min 0 min 54 W/m 12,9 km/h (3 Bft) 100,00 %
02.11.2020 15:56 20,4 C 19,4 C 18,4 C 81 % 1008,2 hPa 0,0 l/m 0 min 0 min 63 W/m 22,5 km/h (4 Bft) 100,00 %
02.11.2020 15:58 20,4 C 19,4 C 18,4 C 81 % 1008,3 hPa 0,0 l/m 0 min 0 min 46 W/m 54,7 km/h (7 Bft) 100,00 %
02.11.2020 16:00 20,3 C 19,4 C 18,4 C 81 % 1008,4 hPa 0,0 l/m 0 min 0 min 38 W/m 48,3 km/h (6 Bft) 100,00 %
02.11.2020 16:02 20,3 C 19,4 C 18,4 C 81 % 1008,2 hPa 0,0 l/m 0 min 0 min 36 W/m 29,0 km/h (5 Bft) 95,74 %
02.11.2020 16:04 20,3 C 19,4 C 18,4 C 81 % 1008,2 hPa 0,0 l/m 0 min 0 min 36 W/m 25,7 km/h (4 Bft) 97,87 %
02.11.2020 16:06 20,3 C 19,4 C 18,4 C 81 % 1008,3 hPa 0,0 l/m 0 min 0 min 31 W/m 41,8 km/h (6 Bft) 93,62 %
02.11.2020 16:08 20,3 C 19,4 C 18,4 C 81 % 1008,2 hPa 0,0 l/m 0 min 0 min 35 W/m 19,3 km/h (3 Bft) 95,74 %
02.11.2020 16:10 20,3 C 19,4 C 18,4 C 81 % 1008,4 hPa 0,0 l/m 0 min 0 min 50 W/m 38,6 km/h (5 Bft) 97,87 %
02.11.2020 16:12 20,3 C 19,4 C 18,4 C 81 % 1008,2 hPa 0,0 l/m 2 min 0 min 61 W/m 25,7 km/h (4 Bft) 97,87 %
02.11.2020 16:14 20,3 C 19,4 C 18,4 C 81 % 1008,4 hPa 0,0 l/m 0 min 0 min 49 W/m 45,1 km/h (6 Bft) 97,87 %
02.11.2020 16:16 20,3 C 19,4 C 18,4 C 81 % 1008,2 hPa 0,0 l/m 0 min 0 min 30 W/m 22,5 km/h (4 Bft) 95,74 %
02.11.2020 16:18 20,3 C 19,4 C 18,4 C 81 % 1008,4 hPa 0,0 l/m 0 min 0 min 32 W/m 35,4 km/h (5 Bft) 97,87 %
02.11.2020 16:20 20,3 C 19,4 C 18,4 C 81 % 1008,4 hPa 0,0 l/m 0 min 0 min 29 W/m 35,4 km/h (5 Bft) 97,87 %
02.11.2020 16:22 20,3 C 19,4 C 18,4 C 81 % 1008,3 hPa 0,0 l/m 0 min 0 min 25 W/m 41,8 km/h (6 Bft) 97,56 %
02.11.2020 16:24 20,3 C 19,4 C 18,4 C 81 % 1008,4 hPa 0,0 l/m 0 min 0 min 22 W/m 35,4 km/h (5 Bft) 93,62 %
02.11.2020 16:26 20,3 C 19,4 C 17,8 C 81 % 1008,4 hPa 0,0 l/m 0 min 0 min 24 W/m 45,1 km/h (6 Bft) 95,83 %
02.11.2020 16:28 20,3 C 19,4 C 18,4 C 81 % 1008,5 hPa 0,0 l/m 0 min 0 min 19 W/m 38,6 km/h (5 Bft) 95,74 %
02.11.2020 16:30 20,3 C 19,4 C 18,4 C 81 % 1008,6 hPa 0,0 l/m 0 min 0 min 18 W/m 41,8 km/h (6 Bft) 95,74 %
02.11.2020 16:32 20,3 C 19,4 C 18,4 C 81 % 1008,6 hPa 0,0 l/m 0 min 0 min 13 W/m 35,4 km/h (5 Bft) 95,74 %
02.11.2020 16:34 20,3 C 19,4 C 17,8 C 81 % 1008,5 hPa 0,0 l/m 0 min 0 min 8 W/m 22,5 km/h (4 Bft) 95,74 %
02.11.2020 16:36 20,3 C 19,4 C 17,8 C 81 % 1008,6 hPa 0,0 l/m 0 min 0 min 6 W/m 25,7 km/h (4 Bft) 95,83 %
02.11.2020 16:38 20,3 C 19,4 C 17,8 C 81 % 1008,6 hPa 0,0 l/m 0 min 0 min 1 W/m 35,4 km/h (5 Bft) 95,83 %
02.11.2020 16:40 20,2 C 19,4 C 17,8 C 81 % 1008,6 hPa 0,0 l/m 0 min 0 min 0 W/m 29,0 km/h (5 Bft) 93,62 %
02.11.2020 16:42 20,3 C 18,3 C 17,8 C 81 % 1008,6 hPa 0,0 l/m 0 min 2 min 0 W/m 41,8 km/h (6 Bft) 93,48 %
02.11.2020 16:44 20,2 C 16,7 C 16,1 C 82 % 1009,1 hPa 0,0 l/m 0 min 2 min 0 W/m 41,8 km/h (6 Bft) 95,74 %
02.11.2020 16:46 20,1 C 16,1 C 15,0 C 83 % 1009,4 hPa 0,2 l/m 0 min 2 min 0 W/m 22,5 km/h (4 Bft) 93,75 %
02.11.2020 16:48 19,9 C 15,6 C 14,5 C 84 % 1009,5 hPa 0,0 l/m 0 min 2 min 0 W/m 19,3 km/h (3 Bft) 91,49 %
02.11.2020 16:50 19,6 C 15,6 C 14,5 C 84 % 1009,5 hPa 0,0 l/m 0 min 2 min 0 W/m 22,5 km/h (4 Bft) 93,62 %
02.11.2020 16:52 19,4 C 15,6 C 14,5 C 85 % 1009,7 hPa 0,0 l/m 0 min 2 min 0 W/m 16,1 km/h (3 Bft) 91,49 %
02.11.2020 16:54 19,1 C 15,0 C 14,5 C 86 % 1009,7 hPa 0,0 l/m 0 min 2 min 0 W/m 6,4 km/h (2 Bft) 93,62 %
02.11.2020 16:56 19,0 C 15,0 C 14,5 C 86 % 1009,7 hPa 0,0 l/m 0 min 2 min 0 W/m 3,2 km/h (1 Bft) 93,62 %
02.11.2020 16:58 18,7 C 15,0 C 14,5 C 87 % 1009,8 hPa 0,0 l/m 0 min 2 min 0 W/m 16,1 km/h (3 Bft) 95,74 %
02.11.2020 17:00 18,5 C 15,0 C 14,5 C 88 % 1009,8 hPa 0,0 l/m 0 min 2 min 0 W/m 19,3 km/h (3 Bft) 95,65 %
02.11.2020 17:02 18,3 C 15,0 C 13,9 C 88 % 1009,8 hPa 0,0 l/m 0 min 2 min 0 W/m 6,4 km/h (2 Bft) 93,62 %
02.11.2020 17:04 18,0 C 15,0 C 13,9 C 88 % 1010,0 hPa 0,0 l/m 0 min 2 min 0 W/m 22,5 km/h (4 Bft) 95,74 %
02.11.2020 17:06 17,9 C 15,0 C 13,9 C 89 % 1010,0 hPa 0,0 l/m 0 min 2 min 0 W/m 29,0 km/h (5 Bft) 93,62 %
02.11.2020 17:08 17,7 C 15,0 C 13,9 C 90 % 1010,0 hPa 0,0 l/m 0 min 2 min 0 W/m 22,5 km/h (4 Bft) 95,74 %
02.11.2020 17:10 17,5 C 15,0 C 13,9 C 90 % 1010,1 hPa 0,0 l/m 0 min 2 min 0 W/m 12,9 km/h (3 Bft) 95,65 %
02.11.2020 17:12 17,4 C 14,4 C 13,9 C 90 % 1010,1 hPa 0,0 l/m 0 min 2 min 0 W/m 3,2 km/h (1 Bft) 90,48 %
02.11.2020 17:14 17,3 C 14,4 C 13,9 C 91 % 1010,1 hPa 0,2 l/m 0 min 2 min 0 W/m 25,7 km/h (4 Bft) 93,62 %
02.11.2020 17:16 17,1 C 14,4 C 13,9 C 91 % 1010,3 hPa 0,0 l/m 0 min 2 min 0 W/m 16,1 km/h (3 Bft) 95,74 %
02.11.2020 17:18 17,1 C 14,4 C 13,9 C 92 % 1010,2 hPa 0,0 l/m 0 min 2 min 0 W/m 16,1 km/h (3 Bft) 95,74 %
02.11.2020 17:20 17,0 C 15,0 C 13,9 C 92 % 1010,3 hPa 0,0 l/m 0 min 2 min 0 W/m 3,2 km/h (1 Bft) 97,87 %
02.11.2020 17:22 16,9 C 15,0 C 13,9 C 93 % 1010,4 hPa 0,2 l/m 0 min 0 min 0 W/m 16,1 km/h (3 Bft) 97,92 %
02.11.2020 17:24 16,9 C 14,4 C 13,9 C 93 % 1010,5 hPa 0,0 l/m 0 min 0 min 0 W/m 22,5 km/h (4 Bft) 97,87 %
02.11.2020 17:26 16,8 C 14,4 C 13,9 C 93 % 1010,4 hPa 0,0 l/m 0 min 0 min 0 W/m 12,9 km/h (3 Bft) 97,87 %
02.11.2020 17:28 16,7 C 14,4 C 13,9 C 94 % 1010,4 hPa 0,0 l/m 0 min 0 min 0 W/m 19,3 km/h (3 Bft) 100,00 %
02.11.2020 17:30 16,6 C 14,4 C 13,9 C 94 % 1010,5 hPa 0,0 l/m 0 min 0 min 0 W/m 9,7 km/h (2 Bft) 100,00 %
02.11.2020 17:32 16,6 C 14,4 C 13,9 C 94 % 1010,5 hPa 0,0 l/m 0 min 0 min 0 W/m 16,1 km/h (3 Bft) 100,00 %
02.11.2020 17:34 16,6 C 14,4 C 13,9 C 94 % 1010,6 hPa 0,0 l/m 0 min 2 min 0 W/m 12,9 km/h (3 Bft) 100,00 %
02.11.2020 17:36 16,5 C 14,4 C 13,9 C 94 % 1010,6 hPa 0,0 l/m 0 min 2 min 0 W/m 12,9 km/h (3 Bft) 100,00 %
02.11.2020 17:38 16,5 C 14,4 C 13,9 C 94 % 1010,6 hPa 0,2 l/m 0 min 2 min 0 W/m 12,9 km/h (3 Bft) 97,87 %
02.11.2020 17:40 16,4 C 14,4 C 13,9 C 95 % 1010,8 hPa 0,0 l/m 0 min 2 min 0 W/m 9,7 km/h (2 Bft) 97,87 %
02.11.2020 17:42 16,4 C 14,4 C 13,9 C 95 % 1010,7 hPa 0,0 l/m 0 min 2 min 0 W/m 16,1 km/h (3 Bft) 100,00 %
02.11.2020 17:44 16,3 C 14,4 C 13,9 C 95 % 1010,7 hPa 0,0 l/m 0 min 2 min 0 W/m 12,9 km/h (3 Bft) 100,00 %
02.11.2020 17:46 16,3 C 14,4 C 13,9 C 95 % 1010,9 hPa 0,0 l/m 0 min 2 min 0 W/m 9,7 km/h (2 Bft) 100,00 %
02.11.2020 17:48 16,2 C 14,4 C 13,9 C 95 % 1010,9 hPa 0,2 l/m 0 min 2 min 0 W/m 3,2 km/h (1 Bft) 100,00 %
02.11.2020 17:50 16,1 C 14,4 C 13,9 C 95 % 1010,9 hPa 0,0 l/m 0 min 2 min 0 W/m 19,3 km/h (3 Bft) 100,00 %
02.11.2020 17:52 16,0 C 14,4 C 13,4 C 96 % 1010,9 hPa 0,0 l/m 0 min 2 min 0 W/m 12,9 km/h (3 Bft) 100,00 %
02.11.2020 17:54 16,0 C 13,9 C 13,4 C 96 % 1011,0 hPa 0,2 l/m 0 min 2 min 0 W/m 9,7 km/h (2 Bft) 97,83 %
02.11.2020 17:56 15,9 C 13,9 C 13,4 C 95 % 1011,1 hPa 0,0 l/m 0 min 2 min 0 W/m 22,5 km/h (4 Bft) 100,00 %
02.11.2020 17:58 15,8 C 13,9 C 13,4 C 96 % 1011,1 hPa 0,0 l/m 0 min 2 min 0 W/m 22,5 km/h (4 Bft) 100,00 %
02.11.2020 18:00 15,7 C 13,9 C 13,4 C 96 % 1011,2 hPa 0,2 l/m 0 min 2 min 0 W/m 6,4 km/h (2 Bft) 100,00 %
02.11.2020 18:02 15,6 C 13,9 C 13,4 C 96 % 1011,3 hPa 0,0 l/m 0 min 2 min 0 W/m 16,1 km/h (3 Bft) 97,96 %
02.11.2020 18:04 15,5 C 13,9 C 13,4 C 96 % 1011,4 hPa 0,0 l/m 0 min 2 min 0 W/m 12,9 km/h (3 Bft) 100,00 %
02.11.2020 18:07 15,4 C 13,3 C 13,4 C 96 % 1011,4 hPa 0,0 l/m 0 min 3 min 0 W/m 9,7 km/h (2 Bft) 98,78 %
02.11.2020 18:08 15,3 C 13,3 C 13,4 C 96 % 1011,4 hPa 0,2 l/m 0 min 1 min 0 W/m 3,2 km/h (1 Bft) 100,00 %
02.11.2020 18:10 15,2 C 13,3 C 12,8 C 96 % 1011,3 hPa 0,0 l/m 0 min 2 min 0 W/m 12,9 km/h (3 Bft) 100,00 %
02.11.2020 18:12 15,1 C 13,3 C 12,8 C 96 % 1011,5 hPa 0,2 l/m 0 min 2 min 0 W/m 6,4 km/h (2 Bft) 100,00 %
02.11.2020 18:14 15,1 C 13,3 C 12,8 C 96 % 1011,5 hPa 0,0 l/m 0 min 2 min 0 W/m 3,2 km/h (1 Bft) 100,00 %
02.11.2020 18:16 15,0 C 13,3 C 12,8 C 96 % 1011,7 hPa 0,0 l/m 0 min 2 min 0 W/m 12,9 km/h (3 Bft) 100,00 %
02.11.2020 18:18 15,0 C 13,3 C 12,8 C 96 % 1011,8 hPa 0,0 l/m 0 min 0 min 0 W/m 9,7 km/h (2 Bft) 100,00 %
02.11.2020 18:20 15,0 C 13,3 C 12,8 C 96 % 1011,8 hPa 0,0 l/m 0 min 2 min 0 W/m 6,4 km/h (2 Bft) 100,00 %
02.11.2020 18:22 14,9 C 13,3 C 12,8 C 96 % 1011,8 hPa 0,0 l/m 0 min 2 min 0 W/m 19,3 km/h (3 Bft) 100,00 %
02.11.2020 18:24 14,9 C 13,3 C 12,8 C 96 % 1011,8 hPa 0,0 l/m 0 min 2 min 0 W/m 9,7 km/h (2 Bft) 100,00 %
02.11.2020 18:26 14,8 C 13,3 C 12,8 C 96 % 1011,9 hPa 0,0 l/m 0 min 2 min 0 W/m 9,7 km/h (2 Bft) 97,87 %
02.11.2020 18:28 14,8 C 13,3 C 12,8 C 96 % 1012,0 hPa 0,0 l/m 0 min 2 min 0 W/m 12,9 km/h (3 Bft) 100,00 %
02.11.2020 18:30 14,7 C 12,8 C 12,8 C 96 % 1012,1 hPa 0,0 l/m 0 min 2 min 0 W/m 29,0 km/h (5 Bft) 100,00 %
02.11.2020 18:32 14,6 C 12,8 C 12,8 C 96 % 1012,1 hPa 0,2 l/m 0 min 2 min 0 W/m 9,7 km/h (2 Bft) 100,00 %
02.11.2020 18:34 14,6 C 12,8 C 12,2 C 96 % 1012,2 hPa 0,0 l/m 0 min 2 min 0 W/m 19,3 km/h (3 Bft) 100,00 %
02.11.2020 18:36 14,5 C 12,8 C 12,2 C 96 % 1012,2 hPa 0,2 l/m 0 min 2 min 0 W/m 12,9 km/h (3 Bft) 100,00 %
02.11.2020 18:38 14,5 C 12,8 C 12,2 C 96 % 1012,3 hPa 0,0 l/m 0 min 2 min 0 W/m 16,1 km/h (3 Bft) 100,00 %
02.11.2020 18:40 14,4 C 12,8 C 12,2 C 96 % 1012,2 hPa 0,2 l/m 0 min 2 min 0 W/m 12,9 km/h (3 Bft) 100,00 %
02.11.2020 18:42 14,4 C 12,8 C 12,2 C 96 % 1012,3 hPa 0,0 l/m 0 min 0 min 0 W/m 6,4 km/h (2 Bft) 100,00 %
02.11.2020 18:44 14,3 C 12,8 C 12,2 C 97 % 1012,4 hPa 0,0 l/m 0 min 0 min 0 W/m 6,4 km/h (2 Bft) 100,00 %
02.11.2020 18:46 14,3 C 12,8 C 12,2 C 97 % 1012,4 hPa 0,0 l/m 0 min 0 min 0 W/m 16,1 km/h (3 Bft) 100,00 %
02.11.2020 18:48 14,2 C 12,8 C 12,2 C 97 % 1012,4 hPa 0,0 l/m 0 min 0 min 0 W/m 12,9 km/h (3 Bft) 97,87 %
02.11.2020 18:50 14,2 C 12,2 C 12,2 C 97 % 1012,5 hPa 0,0 l/m 0 min 0 min 0 W/m 6,4 km/h (2 Bft) 100,00 %
02.11.2020 18:52 14,2 C 12,2 C 11,7 C 96 % 1012,5 hPa 0,0 l/m 0 min 0 min 0 W/m 12,9 km/h (3 Bft) 100,00 %
02.11.2020 18:54 14,0 C 12,2 C 11,7 C 96 % 1012,4 hPa 0,0 l/m 0 min 0 min 0 W/m 16,1 km/h (3 Bft) 100,00 %
02.11.2020 18:56 13,9 C 12,2 C 11,7 C 96 % 1012,4 hPa 0,0 l/m 0 min 0 min 0 W/m 6,4 km/h (2 Bft) 100,00 %
02.11.2020 18:58 13,8 C 11,7 C 11,7 C 96 % 1012,4 hPa 0,0 l/m 0 min 0 min 0 W/m 16,1 km/h (3 Bft) 100,00 %
02.11.2020 19:00 13,7 C 11,7 C 11,7 C 96 % 1012,4 hPa 0,0 l/m 0 min 2 min 0 W/m 19,3 km/h (3 Bft) 100,00 %
02.11.2020 19:02 13,6 C 11,7 C 11,1 C 95 % 1012,5 hPa 0,0 l/m 0 min 2 min 0 W/m 3,2 km/h (1 Bft) 95,65 %
02.11.2020 19:04 13,5 C 11,7 C 11,1 C 95 % 1012,5 hPa 0,0 l/m 0 min 2 min 0 W/m 6,4 km/h (2 Bft) 100,00 %
02.11.2020 19:06 13,5 C 11,7 C 11,1 C 95 % 1012,6 hPa 0,0 l/m 0 min 2 min 0 W/m 6,4 km/h (2 Bft) 97,87 %
02.11.2020 19:08 13,4 C 11,7 C 11,1 C 95 % 1012,7 hPa 0,0 l/m 0 min 2 min 0 W/m 0,0 km/h (0 Bft) 100,00 %
02.11.2020 19:10 13,4 C 11,7 C 11,1 C 95 % 1012,8 hPa 0,0 l/m 0 min 0 min 0 W/m 6,4 km/h (2 Bft) 97,87 %
02.11.2020 19:12 13,3 C 11,7 C 11,1 C 94 % 1012,8 hPa 0,0 l/m 0 min 0 min 0 W/m 0,0 km/h (0 Bft) 97,87 %
02.11.2020 19:14 13,3 C 11,7 C 11,1 C 94 % 1013,0 hPa 0,0 l/m 0 min 0 min 0 W/m 0,0 km/h (0 Bft) 100,00 %
02.11.2020 19:16 13,3 C 11,7 C 11,1 C 94 % 1013,1 hPa 0,0 l/m 0 min 0 min 0 W/m 12,9 km/h (3 Bft) 97,87 %
02.11.2020 19:18 13,2 C 11,7 C 11,1 C 94 % 1013,1 hPa 0,0 l/m 0 min 0 min 0 W/m 3,2 km/h (1 Bft) 97,83 %
02.11.2020 19:20 13,2 C 11,7 C 11,1 C 94 % 1013,2 hPa 0,0 l/m 0 min 0 min 0 W/m 0,0 km/h (0 Bft) 97,87 %
02.11.2020 19:22 13,2 C 11,7 C 11,1 C 94 % 1013,2 hPa 0,0 l/m 0 min 0 min 0 W/m 3,2 km/h (1 Bft) 100,00 %
02.11.2020 19:24 13,1 C 11,7 C 11,1 C 94 % 1013,4 hPa 0,0 l/m 0 min 0 min 0 W/m 19,3 km/h (3 Bft) 97,87 %
02.11.2020 19:26 13,1 C 11,7 C 11,1 C 94 % 1013,4 hPa 0,0 l/m 0 min 0 min 0 W/m 6,4 km/h (2 Bft) 95,74 %
02.11.2020 19:28 13,2 C 12,2 C 11,1 C 94 % 1013,4 hPa 0,0 l/m 0 min 0 min 0 W/m 3,2 km/h (1 Bft) 97,56 %
02.11.2020 19:30 13,2 C 12,2 C 11,7 C 94 % 1013,4 hPa 0,0 l/m 0 min 0 min 0 W/m 6,4 km/h (2 Bft) 97,92 %
02.11.2020 19:32 13,2 C 12,2 C 11,7 C 94 % 1013,5 hPa 0,0 l/m 0 min 0 min 0 W/m 0,0 km/h (0 Bft) 97,96 %
02.11.2020 19:34 13,2 C 12,2 C 11,7 C 95 % 1013,5 hPa 0,0 l/m 0 min 0 min 0 W/m 0,0 km/h (0 Bft) 93,62 %
02.11.2020 19:36 13,2 C 11,7 C 11,1 C 95 % 1013,6 hPa 0,0 l/m 0 min 0 min 0 W/m 6,4 km/h (2 Bft) 93,48 %
02.11.2020 19:38 13,2 C 11,7 C 11,1 C 94 % 1013,6 hPa 0,0 l/m 0 min 0 min 0 W/m 19,3 km/h (3 Bft) 95,74 %
02.11.2020 19:40 13,1 C 11,7 C 11,1 C 94 % 1013,7 hPa 0,0 l/m 0 min 0 min 0 W/m 19,3 km/h (3 Bft) 93,62 %
02.11.2020 19:42 13,1 C 11,7 C 11,1 C 94 % 1013,7 hPa 0,0 l/m 0 min 0 min 0 W/m 22,5 km/h (4 Bft) 93,62 %
02.11.2020 19:44 13,1 C 11,7 C 11,1 C 94 % 1013,8 hPa 0,0 l/m 0 min 0 min 0 W/m 3,2 km/h (1 Bft) 95,83 %
02.11.2020 19:46 13,0 C 11,7 C 11,1 C 94 % 1013,9 hPa 0,0 l/m 0 min 0 min 0 W/m 0,0 km/h (0 Bft) 97,87 %
02.11.2020 19:48 13,0 C 11,7 C 11,1 C 94 % 1014,0 hPa 0,0 l/m 0 min 0 min 0 W/m 6,4 km/h (2 Bft) 93,62 %
02.11.2020 19:50 13,0 C 11,7 C 11,1 C 94 % 1013,9 hPa 0,0 l/m 0 min 0 min 0 W/m 6,4 km/h (2 Bft) 93,75 %
02.11.2020 19:52 13,0 C 11,7 C 11,1 C 93 % 1013,9 hPa 0,0 l/m 0 min 0 min 0 W/m 12,9 km/h (3 Bft) 93,62 %
02.11.2020 19:54 13,0 C 11,7 C 11,1 C 93 % 1014,0 hPa 0,0 l/m 0 min 0 min 0 W/m 6,4 km/h (2 Bft) 93,48 %
02.11.2020 19:56 13,0 C 11,7 C 11,1 C 93 % 1014,0 hPa 0,0 l/m 0 min 0 min 0 W/m 3,2 km/h (1 Bft) 93,62 %
02.11.2020 19:58 13,1 C 11,7 C 11,1 C 93 % 1014,0 hPa 0,0 l/m 0 min 0 min 0 W/m 3,2 km/h (1 Bft) 91,49 %
02.11.2020 20:00 13,0 C 11,7 C 11,1 C 93 % 1014,2 hPa 0,0 l/m 0 min 0 min 0 W/m 16,1 km/h (3 Bft) 93,62 %
02.11.2020 20:02 13,0 C 11,7 C 11,1 C 93 % 1014,2 hPa 0,0 l/m 0 min 0 min 0 W/m 6,4 km/h (2 Bft) 93,62 %
02.11.2020 20:04 13,0 C 11,7 C 11,1 C 93 % 1014,2 hPa 0,0 l/m 0 min 0 min 0 W/m 19,3 km/h (3 Bft) 91,49 %
02.11.2020 20:06 13,0 C 11,7 C 11,1 C 93 % 1014,3 hPa 0,0 l/m 0 min 0 min 0 W/m 19,3 km/h (3 Bft) 91,30 %
02.11.2020 20:08 13,0 C 11,7 C 11,1 C 93 % 1014,4 hPa 0,0 l/m 0 min 0 min 0 W/m 0,0 km/h (0 Bft) 96,00 %
02.11.2020 20:10 13,0 C 11,7 C 11,1 C 93 % 1014,4 hPa 0,0 l/m 0 min 0 min 0 W/m 0,0 km/h (0 Bft) 95,74 %
02.11.2020 20:12 13,0 C 11,7 C 11,1 C 93 % 1014,4 hPa 0,0 l/m 0 min 0 min 0 W/m 3,2 km/h (1 Bft) 97,87 %
02.11.2020 20:14 13,0 C 11,7 C 11,1 C 93 % 1014,4 hPa 0,0 l/m 0 min 0 min 0 W/m 3,2 km/h (1 Bft) 93,62 %
02.11.2020 20:16 13,0 C 11,7 C 11,1 C 93 % 1014,4 hPa 0,0 l/m 0 min 0 min 0 W/m 12,9 km/h (3 Bft) 95,65 %
02.11.2020 20:18 13,0 C 11,7 C 11,1 C 93 % 1014,6 hPa 0,0 l/m 0 min 0 min 0 W/m 16,1 km/h (3 Bft) 93,62 %
02.11.2020 20:20 13,0 C 11,7 C 11,1 C 93 % 1014,6 hPa 0,0 l/m 0 min 0 min 0 W/m 12,9 km/h (3 Bft) 95,74 %
02.11.2020 20:22 13,0 C 11,7 C 11,1 C 93 % 1014,6 hPa 0,0 l/m 0 min 0 min 0 W/m 12,9 km/h (3 Bft) 97,56 %
02.11.2020 20:24 13,0 C 11,7 C 11,1 C 93 % 1014,8 hPa 0,0 l/m 0 min 0 min 0 W/m 3,2 km/h (1 Bft) 97,87 %
02.11.2020 20:26 13,0 C 11,7 C 11,1 C 93 % 1014,7 hPa 0,0 l/m 0 min 0 min 0 W/m 3,2 km/h (1 Bft) 97,87 %
02.11.2020 20:27 13,0 C 11,7 C 11,1 C 93 % 1014,7 hPa 0,0 l/m 0 min 0 min 0 W/m 3,2 km/h (1 Bft) 95,74 %
02.11.2020 20:30 13,0 C 11,7 C 11,1 C 93 % 1014,8 hPa 0,0 l/m 0 min 0 min 0 W/m 3,2 km/h (1 Bft) 97,87 %
02.11.2020 20:32 13,0 C 11,7 C 11,1 C 93 % 1014,8 hPa 0,0 l/m 0 min 0 min 0 W/m 3,2 km/h (1 Bft) 97,87 %
02.11.2020 20:34 13,0 C 11,7 C 11,1 C 93 % 1014,8 hPa 0,0 l/m 0 min 0 min 0 W/m 3,2 km/h (1 Bft) 97,83 %
02.11.2020 20:36 13,0 C 11,7 C 11,1 C 93 % 1014,8 hPa 0,0 l/m 0 min 0 min 0 W/m 6,4 km/h (2 Bft) 93,62 %
02.11.2020 20:38 13,0 C 11,7 C 11,1 C 93 % 1014,9 hPa 0,0 l/m 0 min 0 min 0 W/m 3,2 km/h (1 Bft) 97,87 %
02.11.2020 20:40 13,0 C 11,7 C 11,1 C 93 % 1014,9 hPa 0,0 l/m 0 min 0 min 0 W/m 3,2 km/h (1 Bft) 97,87 %
02.11.2020 20:42 13,0 C 11,7 C 11,1 C 93 % 1014,9 hPa 0,0 l/m 0 min 0 min 0 W/m 6,4 km/h (2 Bft) 97,87 %
02.11.2020 20:44 13,0 C 11,7 C 11,1 C 93 % 1015,0 hPa 0,0 l/m 0 min 0 min 0 W/m 3,2 km/h (1 Bft) 97,87 %
02.11.2020 20:46 13,0 C 11,7 C 11,1 C 93 % 1015,1 hPa 0,0 l/m 0 min 0 min 0 W/m 22,5 km/h (4 Bft) 97,83 %
02.11.2020 20:48 13,0 C 11,7 C 11,1 C 93 % 1015,1 hPa 0,0 l/m 0 min 0 min 0 W/m 3,2 km/h (1 Bft) 97,87 %
02.11.2020 20:50 13,0 C 11,7 C 11,1 C 93 % 1015,1 hPa 0,0 l/m 0 min 0 min 0 W/m 3,2 km/h (1 Bft) 97,87 %
02.11.2020 20:52 13,0 C 11,7 C 11,1 C 93 % 1015,2 hPa 0,0 l/m 0 min 0 min 0 W/m 6,4 km/h (2 Bft) 97,87 %
02.11.2020 20:54 13,0 C 11,7 C 11,1 C 93 % 1015,2 hPa 0,0 l/m 0 min 0 min 0 W/m 0,0 km/h (0 Bft) 97,87 %
02.11.2020 20:56 12,9 C 11,7 C 10,6 C 93 % 1015,3 hPa 0,0 l/m 0 min 0 min 0 W/m 6,4 km/h (2 Bft) 95,74 %
02.11.2020 20:58 12,9 C 11,7 C 10,6 C 93 % 1015,3 hPa 0,0 l/m 0 min 0 min 0 W/m 3,2 km/h (1 Bft) 95,65 %
02.11.2020 21:00 12,9 C 11,7 C 10,6 C 93 % 1015,3 hPa 0,0 l/m 0 min 0 min 0 W/m 3,2 km/h (1 Bft) 100,00 %
02.11.2020 21:02 12,9 C 11,7 C 10,6 C 93 % 1015,4 hPa 0,0 l/m 0 min 0 min 0 W/m 3,2 km/h (1 Bft) 100,00 %
02.11.2020 21:04 12,9 C 11,7 C 10,6 C 92 % 1015,4 hPa 0,0 l/m 0 min 0 min 0 W/m 3,2 km/h (1 Bft) 97,87 %
02.11.2020 21:06 12,8 C 11,7 C 10,6 C 93 % 1015,5 hPa 0,0 l/m 0 min 0 min 0 W/m 3,2 km/h (1 Bft) 97,87 %
02.11.2020 21:08 12,8 C 11,7 C 10,6 C 92 % 1015,4 hPa 0,0 l/m 0 min 0 min 0 W/m 0,0 km/h (0 Bft) 100,00 %
02.11.2020 21:10 12,8 C 11,7 C 10,6 C 92 % 1015,4 hPa 0,0 l/m 0 min 0 min 0 W/m 3,2 km/h (1 Bft) 100,00 %
02.11.2020 21:12 12,7 C 11,7 C 10,6 C 92 % 1015,4 hPa 0,0 l/m 0 min 0 min 0 W/m 3,2 km/h (1 Bft) 100,00 %
02.11.2020 21:14 12,7 C 11,7 C 10,6 C 92 % 1015,5 hPa 0,0 l/m 0 min 0 min 0 W/m 3,2 km/h (1 Bft) 97,87 %
02.11.2020 21:16 12,6 C 11,7 C 10,6 C 92 % 1015,5 hPa 0,0 l/m 0 min 0 min 0 W/m 9,7 km/h (2 Bft) 100,00 %
02.11.2020 21:18 12,6 C 11,7 C 10,6 C 91 % 1015,5 hPa 0,0 l/m 0 min 0 min 0 W/m 0,0 km/h (0 Bft) 97,87 %
02.11.2020 21:20 12,6 C 11,7 C 10,6 C 91 % 1015,6 hPa 0,0 l/m 0 min 0 min 0 W/m 0,0 km/h (0 Bft) 100,00 %
02.11.2020 21:22 12,6 C 11,7 C 10,6 C 91 % 1015,6 hPa 0,0 l/m 0 min 0 min 0 W/m 0,0 km/h (0 Bft) 100,00 %
02.11.2020 21:24 12,6 C 11,7 C 10,6 C 91 % 1015,6 hPa 0,0 l/m 0 min 0 min 0 W/m 0,0 km/h (0 Bft) 97,87 %
02.11.2020 21:26 12,6 C 11,7 C 10,6 C 91 % 1015,7 hPa 0,0 l/m 0 min 0 min 0 W/m 3,2 km/h (1 Bft) 100,00 %
02.11.2020 21:28 12,6 C 12,2 C 10,6 C 91 % 1015,7 hPa 0,0 l/m 0 min 0 min 0 W/m 19,3 km/h (3 Bft) 100,00 %
02.11.2020 21:30 12,6 C 12,2 C 10,6 C 91 % 1015,8 hPa 0,0 l/m 0 min 0 min 0 W/m 3,2 km/h (1 Bft) 100,00 %
02.11.2020 21:32 12,6 C 12,2 C 10,6 C 91 % 1015,8 hPa 0,0 l/m 0 min 0 min 0 W/m 12,9 km/h (3 Bft) 97,83 %
02.11.2020 21:34 12,6 C 12,2 C 10,6 C 91 % 1015,8 hPa 0,0 l/m 0 min 0 min 0 W/m 12,9 km/h (3 Bft) 100,00 %
02.11.2020 21:36 12,6 C 12,2 C 10,6 C 91 % 1015,8 hPa 0,0 l/m 0 min 0 min 0 W/m 3,2 km/h (1 Bft) 100,00 %
02.11.2020 21:38 12,6 C 12,2 C 10,6 C 91 % 1015,9 hPa 0,0 l/m 0 min 0 min 0 W/m 3,2 km/h (1 Bft) 100,00 %
02.11.2020 21:40 12,6 C 11,7 C 10,6 C 91 % 1015,8 hPa 0,0 l/m 0 min 0 min 0 W/m 6,4 km/h (2 Bft) 100,00 %
02.11.2020 21:42 12,5 C 11,7 C 10,6 C 90 % 1016,0 hPa 0,0 l/m 0 min 0 min 0 W/m 22,5 km/h (4 Bft) 100,00 %
02.11.2020 21:44 12,5 C 11,7 C 10,0 C 90 % 1016,1 hPa 0,0 l/m 0 min 0 min 0 W/m 0,0 km/h (0 Bft) 100,00 %
02.11.2020 21:46 12,5 C 11,7 C 10,0 C 90 % 1016,1 hPa 0,0 l/m 0 min 0 min 0 W/m 3,2 km/h (1 Bft) 100,00 %
02.11.2020 21:48 12,5 C 11,7 C 10,0 C 90 % 1016,2 hPa 0,0 l/m 0 min 0 min 0 W/m 6,4 km/h (2 Bft) 95,74 %
02.11.2020 21:50 12,5 C 11,7 C 10,0 C 90 % 1016,2 hPa 0,0 l/m 0 min 0 min 0 W/m 12,9 km/h (3 Bft) 100,00 %
02.11.2020 21:52 12,5 C 11,7 C 10,0 C 90 % 1016,1 hPa 0,0 l/m 0 min 0 min 0 W/m 25,7 km/h (4 Bft) 100,00 %
02.11.2020 21:54 12,4 C 11,7 C 10,0 C 90 % 1016,3 hPa 0,0 l/m 0 min 0 min 0 W/m 6,4 km/h (2 Bft) 100,00 %
02.11.2020 21:56 12,4 C 11,1 C 10,0 C 90 % 1016,3 hPa 0,0 l/m 0 min 0 min 0 W/m 3,2 km/h (1 Bft) 97,83 %
02.11.2020 21:58 12,4 C 11,1 C 10,0 C 90 % 1016,3 hPa 0,0 l/m 0 min 0 min 0 W/m 12,9 km/h (3 Bft) 97,87 %
02.11.2020 22:00 12,4 C 11,7 C 10,0 C 90 % 1016,3 hPa 0,0 l/m 0 min 0 min 0 W/m 3,2 km/h (1 Bft) 97,87 %
02.11.2020 22:02 12,4 C 11,7 C 10,0 C 90 % 1016,4 hPa 0,0 l/m 0 min 0 min 0 W/m 12,9 km/h (3 Bft) 95,74 %
02.11.2020 22:04 12,3 C 11,1 C 10,0 C 89 % 1016,4 hPa 0,0 l/m 0 min 0 min 0 W/m 3,2 km/h (1 Bft) 97,87 %
02.11.2020 22:06 12,3 C 11,1 C 10,0 C 89 % 1016,4 hPa 0,0 l/m 0 min 0 min 0 W/m 6,4 km/h (2 Bft) 97,87 %
02.11.2020 22:08 12,3 C 11,1 C 10,0 C 89 % 1016,6 hPa 0,0 l/m 0 min 0 min 0 W/m 6,4 km/h (2 Bft) 97,83 %
02.11.2020 22:10 12,2 C 11,1 C 10,0 C 89 % 1016,5 hPa 0,0 l/m 0 min 0 min 0 W/m 0,0 km/h (0 Bft) 97,87 %
02.11.2020 22:12 12,2 C 11,1 C 10,0 C 89 % 1016,6 hPa 0,0 l/m 0 min 0 min 0 W/m 0,0 km/h (0 Bft) 97,87 %
02.11.2020 22:14 12,1 C 11,1 C 10,0 C 89 % 1016,6 hPa 0,0 l/m 0 min 0 min 0 W/m 3,2 km/h (1 Bft) 95,74 %
02.11.2020 22:16 12,1 C 11,1 C 10,0 C 89 % 1016,7 hPa 0,0 l/m 0 min 0 min 0 W/m 3,2 km/h (1 Bft) 97,87 %
02.11.2020 22:18 12,1 C 11,1 C 10,0 C 89 % 1016,7 hPa 0,0 l/m 0 min 0 min 0 W/m 6,4 km/h (2 Bft) 97,83 %
02.11.2020 22:20 12,0 C 11,1 C 9,5 C 89 % 1016,8 hPa 0,0 l/m 0 min 0 min 0 W/m 16,1 km/h (3 Bft) 97,87 %
02.11.2020 22:22 12,0 C 11,1 C 9,5 C 89 % 1016,8 hPa 0,0 l/m 0 min 0 min 0 W/m 6,4 km/h (2 Bft) 97,87 %
02.11.2020 22:24 12,0 C 11,1 C 9,5 C 88 % 1016,8 hPa 0,0 l/m 0 min 0 min 0 W/m 19,3 km/h (3 Bft) 95,74 %
02.11.2020 22:26 12,0 C 11,1 C 10,0 C 88 % 1016,8 hPa 0,0 l/m 0 min 0 min 0 W/m 16,1 km/h (3 Bft) 97,87 %
02.11.2020 22:28 12,0 C 11,1 C 10,0 C 88 % 1016,9 hPa 0,0 l/m 0 min 0 min 0 W/m 6,4 km/h (2 Bft) 97,87 %
02.11.2020 22:30 11,9 C 11,1 C 10,0 C 88 % 1016,9 hPa 0,0 l/m 0 min 0 min 0 W/m 12,9 km/h (3 Bft) 97,83 %
02.11.2020 22:32 11,9 C 11,1 C 10,0 C 88 % 1016,9 hPa 0,0 l/m 0 min 0 min 0 W/m 0,0 km/h (0 Bft) 95,74 %
02.11.2020 22:34 11,9 C 11,1 C 10,0 C 88 % 1016,9 hPa 0,0 l/m 0 min 0 min 0 W/m 6,4 km/h (2 Bft) 95,74 %
02.11.2020 22:36 11,9 C 10,6 C 10,0 C 88 % 1017,0 hPa 0,0 l/m 0 min 0 min 0 W/m 3,2 km/h (1 Bft) 93,62 %
02.11.2020 22:38 11,9 C 10,6 C 10,0 C 88 % 1017,1 hPa 0,0 l/m 0 min 0 min 0 W/m 3,2 km/h (1 Bft) 97,87 %
02.11.2020 22:40 11,8 C 10,6 C 10,0 C 88 % 1017,1 hPa 0,0 l/m 0 min 0 min 0 W/m 6,4 km/h (2 Bft) 97,87 %
02.11.2020 22:42 11,8 C 10,6 C 10,0 C 88 % 1017,1 hPa 0,0 l/m 0 min 0 min 0 W/m 3,2 km/h (1 Bft) 97,83 %
02.11.2020 22:44 11,8 C 10,6 C 10,0 C 88 % 1017,1 hPa 0,0 l/m 0 min 0 min 0 W/m 9,7 km/h (2 Bft) 97,87 %
02.11.2020 22:46 11,8 C 10,6 C 10,0 C 88 % 1017,1 hPa 0,0 l/m 0 min 0 min 0 W/m 3,2 km/h (1 Bft) 95,74 %
02.11.2020 22:48 11,8 C 10,6 C 10,0 C 88 % 1017,1 hPa 0,0 l/m 0 min 0 min 0 W/m 3,2 km/h (1 Bft) 97,87 %
02.11.2020 22:50 11,7 C 10,6 C 10,0 C 88 % 1017,2 hPa 0,0 l/m 0 min 0 min 0 W/m 6,4 km/h (2 Bft) 100,00 %
02.11.2020 22:52 11,7 C 10,6 C 10,0 C 88 % 1017,3 hPa 0,0 l/m 0 min 0 min 0 W/m 3,2 km/h (1 Bft) 95,74 %
02.11.2020 22:54 11,7 C 10,6 C 10,0 C 88 % 1017,3 hPa 0,0 l/m 0 min 0 min 0 W/m 3,2 km/h (1 Bft) 97,83 %
02.11.2020 22:56 11,7 C 10,6 C 10,0 C 88 % 1017,3 hPa 0,0 l/m 0 min 0 min 0 W/m 6,4 km/h (2 Bft) 97,87 %
02.11.2020 22:58 11,7 C 10,6 C 10,0 C 88 % 1017,3 hPa 0,0 l/m 0 min 0 min 0 W/m 6,4 km/h (2 Bft) 97,87 %
02.11.2020 23:00 11,6 C 10,6 C 10,0 C 88 % 1017,3 hPa 0,0 l/m 0 min 0 min 0 W/m 19,3 km/h (3 Bft) 97,87 %
02.11.2020 23:02 11,6 C 11,1 C 10,0 C 88 % 1017,3 hPa 0,0 l/m 0 min 0 min 0 W/m 12,9 km/h (3 Bft) 95,74 %
02.11.2020 23:04 11,6 C 10,6 C 10,0 C 88 % 1017,5 hPa 0,0 l/m 0 min 0 min 0 W/m 6,4 km/h (2 Bft) 95,65 %
02.11.2020 23:06 11,6 C 10,6 C 10,0 C 88 % 1017,4 hPa 0,0 l/m 0 min 0 min 0 W/m 12,9 km/h (3 Bft) 97,87 %
02.11.2020 23:08 11,6 C 10,6 C 10,0 C 88 % 1017,4 hPa 0,0 l/m 0 min 0 min 0 W/m 6,4 km/h (2 Bft) 97,87 %
02.11.2020 23:10 11,6 C 10,6 C 10,0 C 89 % 1017,4 hPa 0,0 l/m 0 min 0 min 0 W/m 6,4 km/h (2 Bft) 95,74 %
02.11.2020 23:12 11,6 C 10,6 C 10,0 C 89 % 1017,5 hPa 0,0 l/m 0 min 0 min 0 W/m 6,4 km/h (2 Bft) 97,87 %
02.11.2020 23:14 11,5 C 10,6 C 10,0 C 89 % 1017,5 hPa 0,0 l/m 0 min 0 min 0 W/m 6,4 km/h (2 Bft) 97,87 %
02.11.2020 23:16 11,5 C 10,6 C 10,0 C 89 % 1017,4 hPa 0,0 l/m 0 min 0 min 0 W/m 3,2 km/h (1 Bft) 97,83 %
02.11.2020 23:18 11,5 C 10,6 C 10,0 C 89 % 1017,4 hPa 0,0 l/m 0 min 0 min 0 W/m 3,2 km/h (1 Bft) 97,87 %
02.11.2020 23:20 11,5 C 10,6 C 10,0 C 89 % 1017,4 hPa 0,0 l/m 0 min 0 min 0 W/m 0,0 km/h (0 Bft) 97,87 %
02.11.2020 23:22 11,5 C 10,6 C 10,0 C 89 % 1017,5 hPa 0,0 l/m 0 min 0 min 0 W/m 12,9 km/h (3 Bft) 97,87 %
02.11.2020 23:24 11,5 C 10,6 C 10,0 C 89 % 1017,5 hPa 0,0 l/m 0 min 0 min 0 W/m 6,4 km/h (2 Bft) 100,00 %
02.11.2020 23:26 11,4 C 10,6 C 10,0 C 89 % 1017,5 hPa 0,0 l/m 0 min 0 min 0 W/m 9,7 km/h (2 Bft) 100,00 %
02.11.2020 23:28 11,4 C 10,6 C 10,0 C 89 % 1017,5 hPa 0,0 l/m 0 min 0 min 0 W/m 19,3 km/h (3 Bft) 97,83 %
02.11.2020 23:30 11,4 C 10,6 C 10,0 C 89 % 1017,5 hPa 0,0 l/m 0 min 0 min 0 W/m 6,4 km/h (2 Bft) 97,87 %
02.11.2020 23:32 11,4 C 10,6 C 10,0 C 89 % 1017,5 hPa 0,0 l/m 0 min 0 min 0 W/m 6,4 km/h (2 Bft) 100,00 %
02.11.2020 23:34 11,4 C 10,6 C 10,0 C 89 % 1017,5 hPa 0,0 l/m 0 min 0 min 0 W/m 0,0 km/h (0 Bft) 100,00 %
02.11.2020 23:36 11,4 C 10,6 C 10,0 C 89 % 1017,6 hPa 0,0 l/m 0 min 0 min 0 W/m 12,9 km/h (3 Bft) 97,87 %
02.11.2020 23:38 11,4 C 10,6 C 10,0 C 89 % 1017,7 hPa 0,0 l/m 0 min 0 min 0 W/m 22,5 km/h (4 Bft) 97,87 %
02.11.2020 23:40 11,3 C 10,6 C 10,0 C 89 % 1017,7 hPa 0,0 l/m 0 min 0 min 0 W/m 9,7 km/h (2 Bft) 100,00 %
02.11.2020 23:42 11,3 C 10,6 C 10,0 C 89 % 1017,7 hPa 0,0 l/m 0 min 0 min 0 W/m 16,1 km/h (3 Bft) 100,00 %
02.11.2020 23:44 11,3 C 10,6 C 10,0 C 89 % 1017,8 hPa 0,0 l/m 0 min 0 min 0 W/m 22,5 km/h (4 Bft) 100,00 %
02.11.2020 23:46 11,3 C 10,6 C 10,0 C 89 % 1017,7 hPa 0,0 l/m 0 min 0 min 0 W/m 6,4 km/h (2 Bft) 100,00 %
02.11.2020 23:48 11,3 C 10,6 C 10,0 C 89 % 1017,7 hPa 0,0 l/m 0 min 0 min 0 W/m 6,4 km/h (2 Bft) 100,00 %
02.11.2020 23:50 11,2 C 10,6 C 10,0 C 89 % 1017,8 hPa 0,0 l/m 0 min 0 min 0 W/m 6,4 km/h (2 Bft) 100,00 %
02.11.2020 23:52 11,2 C 10,0 C 10,0 C 89 % 1017,8 hPa 0,0 l/m 0 min 0 min 0 W/m 3,2 km/h (1 Bft) 100,00 %
02.11.2020 23:54 11,2 C 10,0 C 10,0 C 89 % 1017,8 hPa 0,0 l/m 0 min 0 min 0 W/m 6,4 km/h (2 Bft) 100,00 %
02.11.2020 23:56 11,1 C 10,6 C 10,0 C 89 % 1017,9 hPa 0,0 l/m 0 min 0 min 0 W/m 9,7 km/h (2 Bft) 100,00 %
02.11.2020 23:58 11,1 C 10,0 C 10,0 C 89 % 1017,8 hPa 0,0 l/m 0 min 0 min 0 W/m 3,2 km/h (1 Bft) 100,00 %
_ Min-Zeit 23:56 23:52 22:20 10:06 03:34 - - - - 19:08 08:08
Minimum _ 11,1 C 10,0 C 9,5 C 76 % 1007,5 hPa - - - - 0,0 km/h (0 Bft) 47,37 %
_ Max-Zeit 14:12 14:04 14:08 18:44 23:56 00:22 11:22 18:07 14:08 02:06 00:18
Maximum _ 21,3 C 23,9 C 20,0 C 97 % 1017,9 hPa 0,2 l/m 2 min 3 min 390 W/m 64,4 km/h
S-SW (8 Bft)
100,00 %
Durchschnitt _ 17,5 C 16,5 C 15,4 C 87 % 1010,0 hPa #2,6 l/m #28 min. #2:18 h 89 W/m 23,2 km/h (4 Bft) 97,56 %
© 2020 W. Hausmann